<?xml version="1.0" encoding="UTF-8" standalone="no" ?>
<gpx xmlns="http://www.topografix.com/GPX/1/1" xmlns:xsi="http://www.w3.org/2001/XMLSchema-instance" xsi:schemaLocation="http://www.topografix.com/GPX/1/1 http://www.topografix.com/GPX/1/1/gpx.xsd" version="1.1" creator="VisuGPX - https://www.visugpx.com">
  <metadata>
    <name>Aucelon les crêtes</name>
    <desc><![CDATA[D'après visorando merci à son auteur.
Non réalisé.]]></desc>
  </metadata>
  <trk>
    <name><![CDATA[Les Crêtes d'Aucelon]]></name>
    <extensions>
      <line xmlns="http://www.topografix.com/GPX/gpx_style/0/2">
        <color>0000FF</color>
        <width>4</width>
      </line>
    </extensions>
    <trkseg>
      <trkpt lat="44.62635" lon="5.3492">
        <ele>715</ele>
        <time>2020-05-31T10:22:24+02:00</time>
      </trkpt>
      <trkpt lat="44.62641" lon="5.34933">
        <ele>717</ele>
        <time>2020-05-31T10:25:38+02:00</time>
      </trkpt>
      <trkpt lat="44.62653" lon="5.34941">
        <ele>716</ele>
        <time>2020-05-31T10:25:51+02:00</time>
      </trkpt>
      <trkpt lat="44.62675" lon="5.34953">
        <ele>713</ele>
        <time>2020-05-31T10:26:11+02:00</time>
      </trkpt>
      <trkpt lat="44.62705" lon="5.34972">
        <ele>710</ele>
        <time>2020-05-31T10:26:41+02:00</time>
      </trkpt>
      <trkpt lat="44.62721" lon="5.34987">
        <ele>710</ele>
        <time>2020-05-31T10:26:58+02:00</time>
      </trkpt>
      <trkpt lat="44.6274" lon="5.35003">
        <ele>711</ele>
        <time>2020-05-31T10:27:22+02:00</time>
      </trkpt>
      <trkpt lat="44.62753" lon="5.35011">
        <ele>711</ele>
        <time>2020-05-31T10:27:35+02:00</time>
      </trkpt>
      <trkpt lat="44.62779" lon="5.35022">
        <ele>707</ele>
        <time>2020-05-31T10:27:55+02:00</time>
      </trkpt>
      <trkpt lat="44.62803" lon="5.35039">
        <ele>700</ele>
        <time>2020-05-31T10:28:22+02:00</time>
      </trkpt>
      <trkpt lat="44.62821" lon="5.35074">
        <ele>698</ele>
        <time>2020-05-31T10:28:44+02:00</time>
      </trkpt>
      <trkpt lat="44.62831" lon="5.35087">
        <ele>694</ele>
        <time>2020-05-31T10:28:55+02:00</time>
      </trkpt>
      <trkpt lat="44.6284" lon="5.35114">
        <ele>692</ele>
        <time>2020-05-31T10:29:18+02:00</time>
      </trkpt>
      <trkpt lat="44.62841" lon="5.3515">
        <ele>694</ele>
        <time>2020-05-31T10:29:37+02:00</time>
      </trkpt>
      <trkpt lat="44.62833" lon="5.3517">
        <ele>699</ele>
        <time>2020-05-31T10:30:04+02:00</time>
      </trkpt>
      <trkpt lat="44.62814" lon="5.35182">
        <ele>703</ele>
        <time>2020-05-31T10:30:23+02:00</time>
      </trkpt>
      <trkpt lat="44.62795" lon="5.35192">
        <ele>705</ele>
        <time>2020-05-31T10:30:38+02:00</time>
      </trkpt>
      <trkpt lat="44.62772" lon="5.35204">
        <ele>706</ele>
        <time>2020-05-31T10:30:55+02:00</time>
      </trkpt>
      <trkpt lat="44.62758" lon="5.35217">
        <ele>705</ele>
        <time>2020-05-31T10:31:11+02:00</time>
      </trkpt>
      <trkpt lat="44.62756" lon="5.35243">
        <ele>707</ele>
        <time>2020-05-31T10:31:40+02:00</time>
      </trkpt>
      <trkpt lat="44.62779" lon="5.35257">
        <ele>704</ele>
        <time>2020-05-31T10:31:43+02:00</time>
      </trkpt>
      <trkpt lat="44.62796" lon="5.35271">
        <ele>704</ele>
        <time>2020-05-31T10:32:00+02:00</time>
      </trkpt>
      <trkpt lat="44.62815" lon="5.35289">
        <ele>704</ele>
        <time>2020-05-31T10:32:20+02:00</time>
      </trkpt>
      <trkpt lat="44.62835" lon="5.35303">
        <ele>700</ele>
        <time>2020-05-31T10:32:40+02:00</time>
      </trkpt>
      <trkpt lat="44.62852" lon="5.35316">
        <ele>695</ele>
        <time>2020-05-31T10:32:57+02:00</time>
      </trkpt>
      <trkpt lat="44.62858" lon="5.35334">
        <ele>694</ele>
        <time>2020-05-31T10:33:13+02:00</time>
      </trkpt>
      <trkpt lat="44.62862" lon="5.35357">
        <ele>691</ele>
        <time>2020-05-31T10:33:32+02:00</time>
      </trkpt>
      <trkpt lat="44.62859" lon="5.35384">
        <ele>691</ele>
        <time>2020-05-31T10:33:49+02:00</time>
      </trkpt>
      <trkpt lat="44.62861" lon="5.35408">
        <ele>689</ele>
        <time>2020-05-31T10:34:05+02:00</time>
      </trkpt>
      <trkpt lat="44.62861" lon="5.35438">
        <ele>688</ele>
        <time>2020-05-31T10:34:26+02:00</time>
      </trkpt>
      <trkpt lat="44.62858" lon="5.3547">
        <ele>687</ele>
        <time>2020-05-31T10:34:46+02:00</time>
      </trkpt>
      <trkpt lat="44.62853" lon="5.35503">
        <ele>693</ele>
        <time>2020-05-31T10:35:09+02:00</time>
      </trkpt>
      <trkpt lat="44.62856" lon="5.3553">
        <ele>695</ele>
        <time>2020-05-31T10:35:24+02:00</time>
      </trkpt>
      <trkpt lat="44.62866" lon="5.35553">
        <ele>696</ele>
        <time>2020-05-31T10:35:40+02:00</time>
      </trkpt>
      <trkpt lat="44.62876" lon="5.35569">
        <ele>696</ele>
        <time>2020-05-31T10:35:46+02:00</time>
      </trkpt>
      <trkpt lat="44.62884" lon="5.35588">
        <ele>694</ele>
        <time>2020-05-31T10:36:05+02:00</time>
      </trkpt>
      <trkpt lat="44.62886" lon="5.35607">
        <ele>694</ele>
        <time>2020-05-31T10:36:24+02:00</time>
      </trkpt>
      <trkpt lat="44.6288" lon="5.35626">
        <ele>697</ele>
        <time>2020-05-31T10:36:40+02:00</time>
      </trkpt>
      <trkpt lat="44.62864" lon="5.35641">
        <ele>702</ele>
        <time>2020-05-31T10:36:57+02:00</time>
      </trkpt>
      <trkpt lat="44.62848" lon="5.35658">
        <ele>702</ele>
        <time>2020-05-31T10:37:12+02:00</time>
      </trkpt>
      <trkpt lat="44.62838" lon="5.35672">
        <ele>702</ele>
        <time>2020-05-31T10:37:20+02:00</time>
      </trkpt>
      <trkpt lat="44.6283" lon="5.35697">
        <ele>701</ele>
        <time>2020-05-31T10:37:38+02:00</time>
      </trkpt>
      <trkpt lat="44.62827" lon="5.35725">
        <ele>697</ele>
        <time>2020-05-31T10:37:54+02:00</time>
      </trkpt>
      <trkpt lat="44.62823" lon="5.35743">
        <ele>692</ele>
        <time>2020-05-31T10:38:10+02:00</time>
      </trkpt>
      <trkpt lat="44.62809" lon="5.35767">
        <ele>691</ele>
        <time>2020-05-31T10:38:28+02:00</time>
      </trkpt>
      <trkpt lat="44.62794" lon="5.35779">
        <ele>695</ele>
        <time>2020-05-31T10:38:48+02:00</time>
      </trkpt>
      <trkpt lat="44.62779" lon="5.35796">
        <ele>701</ele>
        <time>2020-05-31T10:38:57+02:00</time>
      </trkpt>
      <trkpt lat="44.62777" lon="5.35821">
        <ele>697</ele>
        <time>2020-05-31T10:39:09+02:00</time>
      </trkpt>
      <trkpt lat="44.62784" lon="5.35846">
        <ele>686</ele>
        <time>2020-05-31T10:39:30+02:00</time>
      </trkpt>
      <trkpt lat="44.6277" lon="5.35867">
        <ele>689</ele>
        <time>2020-05-31T10:39:50+02:00</time>
      </trkpt>
      <trkpt lat="44.62759" lon="5.35889">
        <ele>691</ele>
        <time>2020-05-31T10:40:07+02:00</time>
      </trkpt>
      <trkpt lat="44.62746" lon="5.35918">
        <ele>695</ele>
        <time>2020-05-31T10:40:28+02:00</time>
      </trkpt>
      <trkpt lat="44.62736" lon="5.35946">
        <ele>705</ele>
        <time>2020-05-31T10:40:51+02:00</time>
      </trkpt>
      <trkpt lat="44.62734" lon="5.35979">
        <ele>707</ele>
        <time>2020-05-31T10:41:06+02:00</time>
      </trkpt>
      <trkpt lat="44.62733" lon="5.36021">
        <ele>712</ele>
        <time>2020-05-31T10:41:24+02:00</time>
      </trkpt>
      <trkpt lat="44.62747" lon="5.36047">
        <ele>707</ele>
        <time>2020-05-31T10:41:49+02:00</time>
      </trkpt>
      <trkpt lat="44.62753" lon="5.36062">
        <ele>714</ele>
        <time>2020-05-31T10:42:02+02:00</time>
      </trkpt>
      <trkpt lat="44.62742" lon="5.36086">
        <ele>719</ele>
        <time>2020-05-31T10:42:10+02:00</time>
      </trkpt>
      <trkpt lat="44.6273" lon="5.36109">
        <ele>718</ele>
        <time>2020-05-31T10:43:00+02:00</time>
      </trkpt>
      <trkpt lat="44.62722" lon="5.36137">
        <ele>722</ele>
        <time>2020-05-31T10:43:40+02:00</time>
      </trkpt>
      <trkpt lat="44.62706" lon="5.36159">
        <ele>725</ele>
        <time>2020-05-31T10:44:02+02:00</time>
      </trkpt>
      <trkpt lat="44.62696" lon="5.36179">
        <ele>720</ele>
        <time>2020-05-31T10:44:20+02:00</time>
      </trkpt>
      <trkpt lat="44.62691" lon="5.36212">
        <ele>723</ele>
        <time>2020-05-31T10:44:39+02:00</time>
      </trkpt>
      <trkpt lat="44.62691" lon="5.36247">
        <ele>729</ele>
        <time>2020-05-31T10:45:00+02:00</time>
      </trkpt>
      <trkpt lat="44.62683" lon="5.36286">
        <ele>737</ele>
        <time>2020-05-31T10:46:10+02:00</time>
      </trkpt>
      <trkpt lat="44.62673" lon="5.36306">
        <ele>736</ele>
        <time>2020-05-31T10:46:30+02:00</time>
      </trkpt>
      <trkpt lat="44.62662" lon="5.36326">
        <ele>737</ele>
        <time>2020-05-31T10:46:51+02:00</time>
      </trkpt>
      <trkpt lat="44.62644" lon="5.36359">
        <ele>742</ele>
        <time>2020-05-31T10:47:37+02:00</time>
      </trkpt>
      <trkpt lat="44.62635" lon="5.36377">
        <ele>747</ele>
        <time>2020-05-31T10:48:18+02:00</time>
      </trkpt>
      <trkpt lat="44.62636" lon="5.36407">
        <ele>755</ele>
        <time>2020-05-31T10:48:55+02:00</time>
      </trkpt>
      <trkpt lat="44.62629" lon="5.36431">
        <ele>761</ele>
        <time>2020-05-31T10:50:26+02:00</time>
      </trkpt>
      <trkpt lat="44.62621" lon="5.36453">
        <ele>766</ele>
        <time>2020-05-31T10:51:10+02:00</time>
      </trkpt>
      <trkpt lat="44.62604" lon="5.36437">
        <ele>765</ele>
        <time>2020-05-31T10:51:47+02:00</time>
      </trkpt>
      <trkpt lat="44.6257" lon="5.36441">
        <ele>780</ele>
        <time>2020-05-31T10:53:01+02:00</time>
      </trkpt>
      <trkpt lat="44.62541" lon="5.36457">
        <ele>793</ele>
        <time>2020-05-31T10:53:32+02:00</time>
      </trkpt>
      <trkpt lat="44.62527" lon="5.36464">
        <ele>798</ele>
        <time>2020-05-31T10:57:15+02:00</time>
      </trkpt>
      <trkpt lat="44.62507" lon="5.36468">
        <ele>803</ele>
        <time>2020-05-31T10:57:51+02:00</time>
      </trkpt>
      <trkpt lat="44.62483" lon="5.36475">
        <ele>809</ele>
        <time>2020-05-31T10:58:29+02:00</time>
      </trkpt>
      <trkpt lat="44.62462" lon="5.36483">
        <ele>815</ele>
        <time>2020-05-31T10:58:58+02:00</time>
      </trkpt>
      <trkpt lat="44.62448" lon="5.36489">
        <ele>819</ele>
        <time>2020-05-31T10:59:23+02:00</time>
      </trkpt>
      <trkpt lat="44.62432" lon="5.36499">
        <ele>824</ele>
        <time>2020-05-31T10:59:47+02:00</time>
      </trkpt>
      <trkpt lat="44.62408" lon="5.36514">
        <ele>833</ele>
        <time>2020-05-31T11:00:53+02:00</time>
      </trkpt>
      <trkpt lat="44.62387" lon="5.36519">
        <ele>836</ele>
        <time>2020-05-31T11:01:54+02:00</time>
      </trkpt>
      <trkpt lat="44.62361" lon="5.36531">
        <ele>845</ele>
        <time>2020-05-31T11:02:43+02:00</time>
      </trkpt>
      <trkpt lat="44.62335" lon="5.3654">
        <ele>849</ele>
        <time>2020-05-31T11:03:42+02:00</time>
      </trkpt>
      <trkpt lat="44.62319" lon="5.36542">
        <ele>850</ele>
        <time>2020-05-31T11:05:25+02:00</time>
      </trkpt>
      <trkpt lat="44.62297" lon="5.36561">
        <ele>858</ele>
        <time>2020-05-31T11:06:06+02:00</time>
      </trkpt>
      <trkpt lat="44.62274" lon="5.36571">
        <ele>862</ele>
        <time>2020-05-31T11:06:19+02:00</time>
      </trkpt>
      <trkpt lat="44.62246" lon="5.36587">
        <ele>866</ele>
        <time>2020-05-31T11:07:01+02:00</time>
      </trkpt>
      <trkpt lat="44.62218" lon="5.36599">
        <ele>868</ele>
        <time>2020-05-31T11:07:51+02:00</time>
      </trkpt>
      <trkpt lat="44.62193" lon="5.36622">
        <ele>877</ele>
        <time>2020-05-31T11:08:33+02:00</time>
      </trkpt>
      <trkpt lat="44.62168" lon="5.3663">
        <ele>878</ele>
        <time>2020-05-31T11:08:58+02:00</time>
      </trkpt>
      <trkpt lat="44.62147" lon="5.3663">
        <ele>877</ele>
        <time>2020-05-31T11:09:21+02:00</time>
      </trkpt>
      <trkpt lat="44.62129" lon="5.36634">
        <ele>879</ele>
        <time>2020-05-31T11:09:44+02:00</time>
      </trkpt>
      <trkpt lat="44.62112" lon="5.36641">
        <ele>881</ele>
        <time>2020-05-31T11:10:05+02:00</time>
      </trkpt>
      <trkpt lat="44.62096" lon="5.36652">
        <ele>885</ele>
        <time>2020-05-31T11:10:29+02:00</time>
      </trkpt>
      <trkpt lat="44.62079" lon="5.36662">
        <ele>886</ele>
        <time>2020-05-31T11:10:57+02:00</time>
      </trkpt>
      <trkpt lat="44.62065" lon="5.36668">
        <ele>887</ele>
        <time>2020-05-31T11:11:19+02:00</time>
      </trkpt>
      <trkpt lat="44.62055" lon="5.36675">
        <ele>889</ele>
        <time>2020-05-31T11:11:34+02:00</time>
      </trkpt>
      <trkpt lat="44.62041" lon="5.36684">
        <ele>892</ele>
        <time>2020-05-31T11:11:48+02:00</time>
      </trkpt>
      <trkpt lat="44.62023" lon="5.36694">
        <ele>893</ele>
        <time>2020-05-31T11:12:11+02:00</time>
      </trkpt>
      <trkpt lat="44.62007" lon="5.36701">
        <ele>894</ele>
        <time>2020-05-31T11:12:36+02:00</time>
      </trkpt>
      <trkpt lat="44.62018" lon="5.36698">
        <ele>895</ele>
        <time>2020-05-31T11:15:28+02:00</time>
      </trkpt>
      <trkpt lat="44.62041" lon="5.36697">
        <ele>897</ele>
        <time>2020-05-31T11:15:53+02:00</time>
      </trkpt>
      <trkpt lat="44.62065" lon="5.36692">
        <ele>898</ele>
        <time>2020-05-31T11:16:19+02:00</time>
      </trkpt>
      <trkpt lat="44.62088" lon="5.36687">
        <ele>900</ele>
        <time>2020-05-31T11:16:46+02:00</time>
      </trkpt>
      <trkpt lat="44.621" lon="5.36678">
        <ele>896</ele>
        <time>2020-05-31T11:17:11+02:00</time>
      </trkpt>
      <trkpt lat="44.62115" lon="5.36673">
        <ele>895</ele>
        <time>2020-05-31T11:17:33+02:00</time>
      </trkpt>
      <trkpt lat="44.6213" lon="5.36673">
        <ele>897</ele>
        <time>2020-05-31T11:17:50+02:00</time>
      </trkpt>
      <trkpt lat="44.62155" lon="5.36665">
        <ele>895</ele>
        <time>2020-05-31T11:18:15+02:00</time>
      </trkpt>
      <trkpt lat="44.62178" lon="5.36658">
        <ele>893</ele>
        <time>2020-05-31T11:19:03+02:00</time>
      </trkpt>
      <trkpt lat="44.62199" lon="5.36649">
        <ele>892</ele>
        <time>2020-05-31T11:19:27+02:00</time>
      </trkpt>
      <trkpt lat="44.62217" lon="5.36647">
        <ele>894</ele>
        <time>2020-05-31T11:19:49+02:00</time>
      </trkpt>
      <trkpt lat="44.62233" lon="5.36651">
        <ele>899</ele>
        <time>2020-05-31T11:20:11+02:00</time>
      </trkpt>
      <trkpt lat="44.62253" lon="5.36647">
        <ele>899</ele>
        <time>2020-05-31T11:20:34+02:00</time>
      </trkpt>
      <trkpt lat="44.62265" lon="5.36648">
        <ele>900</ele>
        <time>2020-05-31T11:20:47+02:00</time>
      </trkpt>
      <trkpt lat="44.6228" lon="5.36643">
        <ele>899</ele>
        <time>2020-05-31T11:21:10+02:00</time>
      </trkpt>
      <trkpt lat="44.62301" lon="5.36644">
        <ele>898</ele>
        <time>2020-05-31T11:21:33+02:00</time>
      </trkpt>
      <trkpt lat="44.6232" lon="5.36647">
        <ele>898</ele>
        <time>2020-05-31T11:21:43+02:00</time>
      </trkpt>
      <trkpt lat="44.6234" lon="5.36659">
        <ele>901</ele>
        <time>2020-05-31T11:22:17+02:00</time>
      </trkpt>
      <trkpt lat="44.62357" lon="5.36672">
        <ele>902</ele>
        <time>2020-05-31T11:22:41+02:00</time>
      </trkpt>
      <trkpt lat="44.62374" lon="5.36684">
        <ele>901</ele>
        <time>2020-05-31T11:23:08+02:00</time>
      </trkpt>
      <trkpt lat="44.62387" lon="5.36701">
        <ele>901</ele>
        <time>2020-05-31T11:23:32+02:00</time>
      </trkpt>
      <trkpt lat="44.624" lon="5.36711">
        <ele>900</ele>
        <time>2020-05-31T11:23:49+02:00</time>
      </trkpt>
      <trkpt lat="44.62417" lon="5.36729">
        <ele>899</ele>
        <time>2020-05-31T11:25:06+02:00</time>
      </trkpt>
      <trkpt lat="44.62431" lon="5.36743">
        <ele>898</ele>
        <time>2020-05-31T11:25:26+02:00</time>
      </trkpt>
      <trkpt lat="44.62441" lon="5.3675">
        <ele>897</ele>
        <time>2020-05-31T11:25:47+02:00</time>
      </trkpt>
      <trkpt lat="44.62453" lon="5.36777">
        <ele>898</ele>
        <time>2020-05-31T11:26:06+02:00</time>
      </trkpt>
      <trkpt lat="44.62468" lon="5.36799">
        <ele>897</ele>
        <time>2020-05-31T11:26:34+02:00</time>
      </trkpt>
      <trkpt lat="44.62481" lon="5.3681">
        <ele>894</ele>
        <time>2020-05-31T11:26:56+02:00</time>
      </trkpt>
      <trkpt lat="44.62486" lon="5.36824">
        <ele>894</ele>
        <time>2020-05-31T11:27:21+02:00</time>
      </trkpt>
      <trkpt lat="44.62495" lon="5.36847">
        <ele>893</ele>
        <time>2020-05-31T11:28:18+02:00</time>
      </trkpt>
      <trkpt lat="44.62505" lon="5.36867">
        <ele>891</ele>
        <time>2020-05-31T11:28:40+02:00</time>
      </trkpt>
      <trkpt lat="44.62512" lon="5.36901">
        <ele>891</ele>
        <time>2020-05-31T11:29:03+02:00</time>
      </trkpt>
      <trkpt lat="44.62519" lon="5.36914">
        <ele>888</ele>
        <time>2020-05-31T11:29:15+02:00</time>
      </trkpt>
      <trkpt lat="44.62516" lon="5.36939">
        <ele>890</ele>
        <time>2020-05-31T11:29:35+02:00</time>
      </trkpt>
      <trkpt lat="44.62524" lon="5.36972">
        <ele>888</ele>
        <time>2020-05-31T11:29:58+02:00</time>
      </trkpt>
      <trkpt lat="44.6253" lon="5.36997">
        <ele>886</ele>
        <time>2020-05-31T11:30:21+02:00</time>
      </trkpt>
      <trkpt lat="44.6253" lon="5.37025">
        <ele>888</ele>
        <time>2020-05-31T11:30:40+02:00</time>
      </trkpt>
      <trkpt lat="44.62528" lon="5.37047">
        <ele>891</ele>
        <time>2020-05-31T11:31:01+02:00</time>
      </trkpt>
      <trkpt lat="44.62516" lon="5.37084">
        <ele>899</ele>
        <time>2020-05-31T11:31:41+02:00</time>
      </trkpt>
      <trkpt lat="44.62502" lon="5.37107">
        <ele>900</ele>
        <time>2020-05-31T11:32:01+02:00</time>
      </trkpt>
      <trkpt lat="44.62493" lon="5.37128">
        <ele>904</ele>
        <time>2020-05-31T11:32:23+02:00</time>
      </trkpt>
      <trkpt lat="44.62482" lon="5.37151">
        <ele>909</ele>
        <time>2020-05-31T11:32:42+02:00</time>
      </trkpt>
      <trkpt lat="44.62478" lon="5.37174">
        <ele>912</ele>
        <time>2020-05-31T11:33:18+02:00</time>
      </trkpt>
      <trkpt lat="44.62471" lon="5.3719">
        <ele>913</ele>
        <time>2020-05-31T11:33:39+02:00</time>
      </trkpt>
      <trkpt lat="44.62461" lon="5.37212">
        <ele>920</ele>
        <time>2020-05-31T11:34:20+02:00</time>
      </trkpt>
      <trkpt lat="44.62452" lon="5.37234">
        <ele>923</ele>
        <time>2020-05-31T11:34:39+02:00</time>
      </trkpt>
      <trkpt lat="44.62437" lon="5.37255">
        <ele>927</ele>
        <time>2020-05-31T11:35:11+02:00</time>
      </trkpt>
      <trkpt lat="44.62426" lon="5.37276">
        <ele>930</ele>
        <time>2020-05-31T11:35:39+02:00</time>
      </trkpt>
      <trkpt lat="44.62418" lon="5.37302">
        <ele>933</ele>
        <time>2020-05-31T11:36:13+02:00</time>
      </trkpt>
      <trkpt lat="44.62411" lon="5.37335">
        <ele>941</ele>
        <time>2020-05-31T11:36:52+02:00</time>
      </trkpt>
      <trkpt lat="44.62401" lon="5.37373">
        <ele>950</ele>
        <time>2020-05-31T11:37:38+02:00</time>
      </trkpt>
      <trkpt lat="44.62391" lon="5.37413">
        <ele>955</ele>
        <time>2020-05-31T11:38:20+02:00</time>
      </trkpt>
      <trkpt lat="44.62386" lon="5.37436">
        <ele>959</ele>
        <time>2020-05-31T11:38:41+02:00</time>
      </trkpt>
      <trkpt lat="44.62384" lon="5.37467">
        <ele>966</ele>
        <time>2020-05-31T11:39:26+02:00</time>
      </trkpt>
      <trkpt lat="44.62383" lon="5.37523">
        <ele>977</ele>
        <time>2020-05-31T11:42:50+02:00</time>
      </trkpt>
      <trkpt lat="44.6239" lon="5.37546">
        <ele>979</ele>
        <time>2020-05-31T11:43:10+02:00</time>
      </trkpt>
      <trkpt lat="44.62391" lon="5.37569">
        <ele>982</ele>
        <time>2020-05-31T11:43:31+02:00</time>
      </trkpt>
      <trkpt lat="44.62394" lon="5.37603">
        <ele>987</ele>
        <time>2020-05-31T11:44:08+02:00</time>
      </trkpt>
      <trkpt lat="44.62398" lon="5.37626">
        <ele>991</ele>
        <time>2020-05-31T11:44:27+02:00</time>
      </trkpt>
      <trkpt lat="44.62403" lon="5.37649">
        <ele>995</ele>
        <time>2020-05-31T11:44:47+02:00</time>
      </trkpt>
      <trkpt lat="44.62407" lon="5.3768">
        <ele>998</ele>
        <time>2020-05-31T11:45:12+02:00</time>
      </trkpt>
      <trkpt lat="44.62409" lon="5.37709">
        <ele>999</ele>
        <time>2020-05-31T11:45:37+02:00</time>
      </trkpt>
      <trkpt lat="44.62408" lon="5.37724">
        <ele>1000</ele>
        <time>2020-05-31T11:45:59+02:00</time>
      </trkpt>
      <trkpt lat="44.62407" lon="5.37748">
        <ele>1002</ele>
        <time>2020-05-31T11:46:24+02:00</time>
      </trkpt>
      <trkpt lat="44.6241" lon="5.37772">
        <ele>1004</ele>
        <time>2020-05-31T11:46:48+02:00</time>
      </trkpt>
      <trkpt lat="44.62412" lon="5.37794">
        <ele>1006</ele>
        <time>2020-05-31T11:47:09+02:00</time>
      </trkpt>
      <trkpt lat="44.6241" lon="5.37818">
        <ele>1009</ele>
        <time>2020-05-31T11:47:32+02:00</time>
      </trkpt>
      <trkpt lat="44.6241" lon="5.37841">
        <ele>1011</ele>
        <time>2020-05-31T11:47:56+02:00</time>
      </trkpt>
      <trkpt lat="44.62413" lon="5.37864">
        <ele>1014</ele>
        <time>2020-05-31T11:48:16+02:00</time>
      </trkpt>
      <trkpt lat="44.62416" lon="5.37895">
        <ele>1018</ele>
        <time>2020-05-31T11:48:40+02:00</time>
      </trkpt>
      <trkpt lat="44.62415" lon="5.37921">
        <ele>1020</ele>
        <time>2020-05-31T11:49:00+02:00</time>
      </trkpt>
      <trkpt lat="44.62413" lon="5.37945">
        <ele>1023</ele>
        <time>2020-05-31T11:49:21+02:00</time>
      </trkpt>
      <trkpt lat="44.62411" lon="5.37964">
        <ele>1025</ele>
        <time>2020-05-31T11:49:40+02:00</time>
      </trkpt>
      <trkpt lat="44.62413" lon="5.37985">
        <ele>1028</ele>
        <time>2020-05-31T11:50:00+02:00</time>
      </trkpt>
      <trkpt lat="44.62416" lon="5.38003">
        <ele>1030</ele>
        <time>2020-05-31T11:50:22+02:00</time>
      </trkpt>
      <trkpt lat="44.62415" lon="5.38023">
        <ele>1033</ele>
        <time>2020-05-31T11:50:44+02:00</time>
      </trkpt>
      <trkpt lat="44.62426" lon="5.3805">
        <ele>1035</ele>
        <time>2020-05-31T11:51:21+02:00</time>
      </trkpt>
      <trkpt lat="44.6243" lon="5.38067">
        <ele>1035</ele>
        <time>2020-05-31T11:51:38+02:00</time>
      </trkpt>
      <trkpt lat="44.62431" lon="5.38085">
        <ele>1036</ele>
        <time>2020-05-31T11:51:54+02:00</time>
      </trkpt>
      <trkpt lat="44.62436" lon="5.381">
        <ele>1037</ele>
        <time>2020-05-31T11:52:09+02:00</time>
      </trkpt>
      <trkpt lat="44.62437" lon="5.38123">
        <ele>1039</ele>
        <time>2020-05-31T11:52:26+02:00</time>
      </trkpt>
      <trkpt lat="44.62438" lon="5.38146">
        <ele>1041</ele>
        <time>2020-05-31T11:52:43+02:00</time>
      </trkpt>
      <trkpt lat="44.6244" lon="5.38177">
        <ele>1046</ele>
        <time>2020-05-31T11:53:06+02:00</time>
      </trkpt>
      <trkpt lat="44.62439" lon="5.38203">
        <ele>1051</ele>
        <time>2020-05-31T11:53:20+02:00</time>
      </trkpt>
      <trkpt lat="44.62443" lon="5.38235">
        <ele>1059</ele>
        <time>2020-05-31T11:53:52+02:00</time>
      </trkpt>
      <trkpt lat="44.62462" lon="5.38255">
        <ele>1064</ele>
        <time>2020-05-31T11:54:13+02:00</time>
      </trkpt>
      <trkpt lat="44.62481" lon="5.3827">
        <ele>1068</ele>
        <time>2020-05-31T11:54:35+02:00</time>
      </trkpt>
      <trkpt lat="44.62502" lon="5.38281">
        <ele>1071</ele>
        <time>2020-05-31T11:55:19+02:00</time>
      </trkpt>
      <trkpt lat="44.62535" lon="5.38294">
        <ele>1073</ele>
        <time>2020-05-31T11:56:16+02:00</time>
      </trkpt>
      <trkpt lat="44.62553" lon="5.38285">
        <ele>1075</ele>
        <time>2020-05-31T11:56:52+02:00</time>
      </trkpt>
      <trkpt lat="44.62567" lon="5.38307">
        <ele>1080</ele>
        <time>2020-05-31T11:58:18+02:00</time>
      </trkpt>
      <trkpt lat="44.62565" lon="5.38319">
        <ele>1081</ele>
        <time>2020-05-31T12:01:28+02:00</time>
      </trkpt>
      <trkpt lat="44.62566" lon="5.3834">
        <ele>1084</ele>
        <time>2020-05-31T12:01:51+02:00</time>
      </trkpt>
      <trkpt lat="44.62565" lon="5.38361">
        <ele>1085</ele>
        <time>2020-05-31T12:02:11+02:00</time>
      </trkpt>
      <trkpt lat="44.62563" lon="5.38379">
        <ele>1086</ele>
        <time>2020-05-31T12:02:28+02:00</time>
      </trkpt>
      <trkpt lat="44.62563" lon="5.3842">
        <ele>1091</ele>
        <time>2020-05-31T12:02:57+02:00</time>
      </trkpt>
      <trkpt lat="44.62568" lon="5.38438">
        <ele>1095</ele>
        <time>2020-05-31T12:03:42+02:00</time>
      </trkpt>
      <trkpt lat="44.62569" lon="5.38462">
        <ele>1096</ele>
        <time>2020-05-31T12:04:13+02:00</time>
      </trkpt>
      <trkpt lat="44.62569" lon="5.38483">
        <ele>1097</ele>
        <time>2020-05-31T12:04:30+02:00</time>
      </trkpt>
      <trkpt lat="44.62567" lon="5.38503">
        <ele>1098</ele>
        <time>2020-05-31T12:04:48+02:00</time>
      </trkpt>
      <trkpt lat="44.62565" lon="5.3853">
        <ele>1100</ele>
        <time>2020-05-31T12:05:12+02:00</time>
      </trkpt>
      <trkpt lat="44.62562" lon="5.3856">
        <ele>1101</ele>
        <time>2020-05-31T12:05:36+02:00</time>
      </trkpt>
      <trkpt lat="44.62561" lon="5.38583">
        <ele>1103</ele>
        <time>2020-05-31T12:05:55+02:00</time>
      </trkpt>
      <trkpt lat="44.62561" lon="5.38593">
        <ele>1104</ele>
        <time>2020-05-31T12:06:03+02:00</time>
      </trkpt>
      <trkpt lat="44.62559" lon="5.38621">
        <ele>1108</ele>
        <time>2020-05-31T12:06:45+02:00</time>
      </trkpt>
      <trkpt lat="44.62547" lon="5.3863">
        <ele>1110</ele>
        <time>2020-05-31T12:07:05+02:00</time>
      </trkpt>
      <trkpt lat="44.62526" lon="5.38635">
        <ele>1110</ele>
        <time>2020-05-31T12:08:02+02:00</time>
      </trkpt>
      <trkpt lat="44.62513" lon="5.38643">
        <ele>1111</ele>
        <time>2020-05-31T12:08:24+02:00</time>
      </trkpt>
      <trkpt lat="44.62498" lon="5.38653">
        <ele>1112</ele>
        <time>2020-05-31T12:08:46+02:00</time>
      </trkpt>
      <trkpt lat="44.62484" lon="5.38663">
        <ele>1115</ele>
        <time>2020-05-31T12:09:04+02:00</time>
      </trkpt>
      <trkpt lat="44.62475" lon="5.38659">
        <ele>1115</ele>
        <time>2020-05-31T12:09:20+02:00</time>
      </trkpt>
      <trkpt lat="44.6246" lon="5.38664">
        <ele>1120</ele>
        <time>2020-05-31T12:09:39+02:00</time>
      </trkpt>
      <trkpt lat="44.62439" lon="5.38664">
        <ele>1127</ele>
        <time>2020-05-31T12:11:01+02:00</time>
      </trkpt>
      <trkpt lat="44.62417" lon="5.38669">
        <ele>1136</ele>
        <time>2020-05-31T12:13:24+02:00</time>
      </trkpt>
      <trkpt lat="44.62402" lon="5.3867">
        <ele>1139</ele>
        <time>2020-05-31T12:13:48+02:00</time>
      </trkpt>
      <trkpt lat="44.62381" lon="5.38671">
        <ele>1143</ele>
        <time>2020-05-31T12:14:31+02:00</time>
      </trkpt>
      <trkpt lat="44.62363" lon="5.38681">
        <ele>1147</ele>
        <time>2020-05-31T12:16:37+02:00</time>
      </trkpt>
      <trkpt lat="44.62355" lon="5.38687">
        <ele>1148</ele>
        <time>2020-05-31T12:16:53+02:00</time>
      </trkpt>
      <trkpt lat="44.62343" lon="5.38697">
        <ele>1151</ele>
        <time>2020-05-31T12:17:12+02:00</time>
      </trkpt>
      <trkpt lat="44.62332" lon="5.38707">
        <ele>1153</ele>
        <time>2020-05-31T12:17:29+02:00</time>
      </trkpt>
      <trkpt lat="44.62325" lon="5.38721">
        <ele>1156</ele>
        <time>2020-05-31T12:17:48+02:00</time>
      </trkpt>
      <trkpt lat="44.62319" lon="5.38734">
        <ele>1158</ele>
        <time>2020-05-31T12:18:03+02:00</time>
      </trkpt>
      <trkpt lat="44.62309" lon="5.38745">
        <ele>1160</ele>
        <time>2020-05-31T12:18:18+02:00</time>
      </trkpt>
      <trkpt lat="44.62291" lon="5.38758">
        <ele>1162</ele>
        <time>2020-05-31T12:18:39+02:00</time>
      </trkpt>
      <trkpt lat="44.62271" lon="5.38763">
        <ele>1162</ele>
        <time>2020-05-31T12:19:04+02:00</time>
      </trkpt>
      <trkpt lat="44.62254" lon="5.38769">
        <ele>1163</ele>
        <time>2020-05-31T12:19:29+02:00</time>
      </trkpt>
      <trkpt lat="44.62236" lon="5.38775">
        <ele>1164</ele>
        <time>2020-05-31T12:19:49+02:00</time>
      </trkpt>
      <trkpt lat="44.62215" lon="5.38777">
        <ele>1166</ele>
        <time>2020-05-31T12:20:09+02:00</time>
      </trkpt>
      <trkpt lat="44.62189" lon="5.38784">
        <ele>1169</ele>
        <time>2020-05-31T12:20:34+02:00</time>
      </trkpt>
      <trkpt lat="44.62164" lon="5.3879">
        <ele>1170</ele>
        <time>2020-05-31T12:20:59+02:00</time>
      </trkpt>
      <trkpt lat="44.6215" lon="5.38795">
        <ele>1172</ele>
        <time>2020-05-31T12:21:14+02:00</time>
      </trkpt>
      <trkpt lat="44.6213" lon="5.38799">
        <ele>1174</ele>
        <time>2020-05-31T12:21:40+02:00</time>
      </trkpt>
      <trkpt lat="44.62113" lon="5.38802">
        <ele>1177</ele>
        <time>2020-05-31T12:21:58+02:00</time>
      </trkpt>
      <trkpt lat="44.62092" lon="5.38809">
        <ele>1178</ele>
        <time>2020-05-31T12:22:19+02:00</time>
      </trkpt>
      <trkpt lat="44.6208" lon="5.38816">
        <ele>1179</ele>
        <time>2020-05-31T12:22:34+02:00</time>
      </trkpt>
      <trkpt lat="44.62069" lon="5.38821">
        <ele>1180</ele>
        <time>2020-05-31T12:22:49+02:00</time>
      </trkpt>
      <trkpt lat="44.6205" lon="5.38832">
        <ele>1181</ele>
        <time>2020-05-31T12:23:13+02:00</time>
      </trkpt>
      <trkpt lat="44.6203" lon="5.38842">
        <ele>1184</ele>
        <time>2020-05-31T12:23:37+02:00</time>
      </trkpt>
      <trkpt lat="44.6201" lon="5.3885">
        <ele>1187</ele>
        <time>2020-05-31T12:24:01+02:00</time>
      </trkpt>
      <trkpt lat="44.61993" lon="5.38861">
        <ele>1189</ele>
        <time>2020-05-31T12:24:21+02:00</time>
      </trkpt>
      <trkpt lat="44.61987" lon="5.3889">
        <ele>1192</ele>
        <time>2020-05-31T12:24:46+02:00</time>
      </trkpt>
      <trkpt lat="44.61976" lon="5.38897">
        <ele>1194</ele>
        <time>2020-05-31T12:25:03+02:00</time>
      </trkpt>
      <trkpt lat="44.61964" lon="5.38915">
        <ele>1198</ele>
        <time>2020-05-31T12:25:23+02:00</time>
      </trkpt>
      <trkpt lat="44.61948" lon="5.38932">
        <ele>1200</ele>
        <time>2020-05-31T12:25:46+02:00</time>
      </trkpt>
      <trkpt lat="44.61934" lon="5.38943">
        <ele>1201</ele>
        <time>2020-05-31T12:26:10+02:00</time>
      </trkpt>
      <trkpt lat="44.61917" lon="5.38954">
        <ele>1204</ele>
        <time>2020-05-31T12:26:33+02:00</time>
      </trkpt>
      <trkpt lat="44.61901" lon="5.38961">
        <ele>1208</ele>
        <time>2020-05-31T12:26:56+02:00</time>
      </trkpt>
      <trkpt lat="44.61892" lon="5.38977">
        <ele>1212</ele>
        <time>2020-05-31T12:27:19+02:00</time>
      </trkpt>
      <trkpt lat="44.61883" lon="5.39002">
        <ele>1216</ele>
        <time>2020-05-31T12:27:42+02:00</time>
      </trkpt>
      <trkpt lat="44.61873" lon="5.39028">
        <ele>1220</ele>
        <time>2020-05-31T12:28:22+02:00</time>
      </trkpt>
      <trkpt lat="44.61867" lon="5.39057">
        <ele>1228</ele>
        <time>2020-05-31T12:29:00+02:00</time>
      </trkpt>
      <trkpt lat="44.61862" lon="5.39072">
        <ele>1232</ele>
        <time>2020-05-31T12:29:20+02:00</time>
      </trkpt>
      <trkpt lat="44.61862" lon="5.3909">
        <ele>1238</ele>
        <time>2020-05-31T12:29:40+02:00</time>
      </trkpt>
      <trkpt lat="44.61864" lon="5.39106">
        <ele>1243</ele>
        <time>2020-05-31T12:29:58+02:00</time>
      </trkpt>
      <trkpt lat="44.61863" lon="5.39135">
        <ele>1253</ele>
        <time>2020-05-31T12:30:34+02:00</time>
      </trkpt>
      <trkpt lat="44.61852" lon="5.39156">
        <ele>1261</ele>
        <time>2020-05-31T12:31:09+02:00</time>
      </trkpt>
      <trkpt lat="44.61842" lon="5.39177">
        <ele>1269</ele>
        <time>2020-05-31T12:31:46+02:00</time>
      </trkpt>
      <trkpt lat="44.61834" lon="5.39189">
        <ele>1273</ele>
        <time>2020-05-31T12:32:05+02:00</time>
      </trkpt>
      <trkpt lat="44.6182" lon="5.39213">
        <ele>1279</ele>
        <time>2020-05-31T12:32:46+02:00</time>
      </trkpt>
      <trkpt lat="44.61804" lon="5.39234">
        <ele>1284</ele>
        <time>2020-05-31T12:33:26+02:00</time>
      </trkpt>
      <trkpt lat="44.61792" lon="5.39247">
        <ele>1287</ele>
        <time>2020-05-31T12:33:52+02:00</time>
      </trkpt>
      <trkpt lat="44.61779" lon="5.39267">
        <ele>1290</ele>
        <time>2020-05-31T12:34:24+02:00</time>
      </trkpt>
      <trkpt lat="44.61764" lon="5.3929">
        <ele>1295</ele>
        <time>2020-05-31T12:35:03+02:00</time>
      </trkpt>
      <trkpt lat="44.61755" lon="5.39299">
        <ele>1297</ele>
        <time>2020-05-31T12:35:22+02:00</time>
      </trkpt>
      <trkpt lat="44.61743" lon="5.39307">
        <ele>1299</ele>
        <time>2020-05-31T12:35:42+02:00</time>
      </trkpt>
      <trkpt lat="44.61727" lon="5.39308">
        <ele>1302</ele>
        <time>2020-05-31T12:36:03+02:00</time>
      </trkpt>
      <trkpt lat="44.61711" lon="5.393">
        <ele>1301</ele>
        <time>2020-05-31T12:36:30+02:00</time>
      </trkpt>
      <trkpt lat="44.61699" lon="5.3931">
        <ele>1303</ele>
        <time>2020-05-31T12:44:28+02:00</time>
      </trkpt>
      <trkpt lat="44.61696" lon="5.39326">
        <ele>1307</ele>
        <time>2020-05-31T12:44:47+02:00</time>
      </trkpt>
      <trkpt lat="44.61701" lon="5.39354">
        <ele>1315</ele>
        <time>2020-05-31T12:45:26+02:00</time>
      </trkpt>
      <trkpt lat="44.61691" lon="5.39375">
        <ele>1319</ele>
        <time>2020-05-31T12:46:03+02:00</time>
      </trkpt>
      <trkpt lat="44.61678" lon="5.39398">
        <ele>1324</ele>
        <time>2020-05-31T12:46:41+02:00</time>
      </trkpt>
      <trkpt lat="44.61667" lon="5.39406">
        <ele>1327</ele>
        <time>2020-05-31T12:47:02+02:00</time>
      </trkpt>
      <trkpt lat="44.61658" lon="5.39433">
        <ele>1329</ele>
        <time>2020-05-31T12:47:42+02:00</time>
      </trkpt>
      <trkpt lat="44.61656" lon="5.39463">
        <ele>1309</ele>
        <time>2020-05-31T12:48:41+02:00</time>
      </trkpt>
      <trkpt lat="44.61635" lon="5.39465">
        <ele>1310</ele>
        <time>2020-05-31T12:53:15+02:00</time>
      </trkpt>
      <trkpt lat="44.61622" lon="5.39466">
        <ele>1310</ele>
        <time>2020-05-31T12:53:34+02:00</time>
      </trkpt>
      <trkpt lat="44.61613" lon="5.39464">
        <ele>1313</ele>
        <time>2020-05-31T12:54:00+02:00</time>
      </trkpt>
      <trkpt lat="44.61598" lon="5.39458">
        <ele>1319</ele>
        <time>2020-05-31T12:54:18+02:00</time>
      </trkpt>
      <trkpt lat="44.61584" lon="5.39449">
        <ele>1330</ele>
        <time>2020-05-31T12:54:38+02:00</time>
      </trkpt>
      <trkpt lat="44.61576" lon="5.39445">
        <ele>1333</ele>
        <time>2020-05-31T12:54:49+02:00</time>
      </trkpt>
      <trkpt lat="44.61561" lon="5.39433">
        <ele>1334</ele>
        <time>2020-05-31T12:55:09+02:00</time>
      </trkpt>
      <trkpt lat="44.61549" lon="5.39425">
        <ele>1338</ele>
        <time>2020-05-31T12:55:25+02:00</time>
      </trkpt>
      <trkpt lat="44.6154" lon="5.39422">
        <ele>1339</ele>
        <time>2020-05-31T12:55:37+02:00</time>
      </trkpt>
      <trkpt lat="44.61523" lon="5.39412">
        <ele>1346</ele>
        <time>2020-05-31T12:55:57+02:00</time>
      </trkpt>
      <trkpt lat="44.61516" lon="5.39413">
        <ele>1346</ele>
        <time>2020-05-31T12:56:15+02:00</time>
      </trkpt>
      <trkpt lat="44.61501" lon="5.39424">
        <ele>1343</ele>
        <time>2020-05-31T12:56:35+02:00</time>
      </trkpt>
      <trkpt lat="44.61487" lon="5.39444">
        <ele>1337</ele>
        <time>2020-05-31T12:57:42+02:00</time>
      </trkpt>
      <trkpt lat="44.61474" lon="5.39453">
        <ele>1338</ele>
        <time>2020-05-31T12:58:07+02:00</time>
      </trkpt>
      <trkpt lat="44.61456" lon="5.39469">
        <ele>1336</ele>
        <time>2020-05-31T12:58:58+02:00</time>
      </trkpt>
      <trkpt lat="44.61448" lon="5.39481">
        <ele>1330</ele>
        <time>2020-05-31T12:59:14+02:00</time>
      </trkpt>
      <trkpt lat="44.61432" lon="5.39493">
        <ele>1324</ele>
        <time>2020-05-31T12:59:32+02:00</time>
      </trkpt>
      <trkpt lat="44.61422" lon="5.39498">
        <ele>1326</ele>
        <time>2020-05-31T12:59:42+02:00</time>
      </trkpt>
      <trkpt lat="44.61398" lon="5.39503">
        <ele>1335</ele>
        <time>2020-05-31T13:00:06+02:00</time>
      </trkpt>
      <trkpt lat="44.61377" lon="5.39507">
        <ele>1333</ele>
        <time>2020-05-31T13:00:27+02:00</time>
      </trkpt>
      <trkpt lat="44.61356" lon="5.3951">
        <ele>1333</ele>
        <time>2020-05-31T13:00:49+02:00</time>
      </trkpt>
      <trkpt lat="44.6134" lon="5.39511">
        <ele>1333</ele>
        <time>2020-05-31T13:01:07+02:00</time>
      </trkpt>
      <trkpt lat="44.6132" lon="5.39513">
        <ele>1333</ele>
        <time>2020-05-31T13:01:28+02:00</time>
      </trkpt>
      <trkpt lat="44.61298" lon="5.39516">
        <ele>1332</ele>
        <time>2020-05-31T13:02:01+02:00</time>
      </trkpt>
      <trkpt lat="44.61277" lon="5.39513">
        <ele>1335</ele>
        <time>2020-05-31T13:02:24+02:00</time>
      </trkpt>
      <trkpt lat="44.61261" lon="5.39509">
        <ele>1338</ele>
        <time>2020-05-31T13:02:43+02:00</time>
      </trkpt>
      <trkpt lat="44.61247" lon="5.39507">
        <ele>1340</ele>
        <time>2020-05-31T13:02:59+02:00</time>
      </trkpt>
      <trkpt lat="44.61225" lon="5.39499">
        <ele>1344</ele>
        <time>2020-05-31T13:03:22+02:00</time>
      </trkpt>
      <trkpt lat="44.61203" lon="5.39482">
        <ele>1346</ele>
        <time>2020-05-31T13:03:47+02:00</time>
      </trkpt>
      <trkpt lat="44.61196" lon="5.39481">
        <ele>1346</ele>
        <time>2020-05-31T13:03:57+02:00</time>
      </trkpt>
      <trkpt lat="44.61176" lon="5.39474">
        <ele>1345</ele>
        <time>2020-05-31T13:04:18+02:00</time>
      </trkpt>
      <trkpt lat="44.61156" lon="5.39467">
        <ele>1344</ele>
        <time>2020-05-31T13:04:39+02:00</time>
      </trkpt>
      <trkpt lat="44.61138" lon="5.39456">
        <ele>1345</ele>
        <time>2020-05-31T13:04:58+02:00</time>
      </trkpt>
      <trkpt lat="44.61121" lon="5.3945">
        <ele>1345</ele>
        <time>2020-05-31T13:05:16+02:00</time>
      </trkpt>
      <trkpt lat="44.61104" lon="5.39441">
        <ele>1345</ele>
        <time>2020-05-31T13:05:36+02:00</time>
      </trkpt>
      <trkpt lat="44.61097" lon="5.39435">
        <ele>1346</ele>
        <time>2020-05-31T13:05:52+02:00</time>
      </trkpt>
      <trkpt lat="44.61086" lon="5.3942">
        <ele>1349</ele>
        <time>2020-05-31T13:06:09+02:00</time>
      </trkpt>
      <trkpt lat="44.61068" lon="5.39416">
        <ele>1348</ele>
        <time>2020-05-31T13:06:28+02:00</time>
      </trkpt>
      <trkpt lat="44.61045" lon="5.39417">
        <ele>1345</ele>
        <time>2020-05-31T13:06:51+02:00</time>
      </trkpt>
      <trkpt lat="44.61025" lon="5.39418">
        <ele>1344</ele>
        <time>2020-05-31T13:07:12+02:00</time>
      </trkpt>
      <trkpt lat="44.61006" lon="5.39418">
        <ele>1346</ele>
        <time>2020-05-31T13:07:33+02:00</time>
      </trkpt>
      <trkpt lat="44.60983" lon="5.39417">
        <ele>1343</ele>
        <time>2020-05-31T13:08:13+02:00</time>
      </trkpt>
      <trkpt lat="44.60967" lon="5.39416">
        <ele>1339</ele>
        <time>2020-05-31T13:08:49+02:00</time>
      </trkpt>
      <trkpt lat="44.60958" lon="5.39408">
        <ele>1338</ele>
        <time>2020-05-31T13:09:07+02:00</time>
      </trkpt>
      <trkpt lat="44.60944" lon="5.39409">
        <ele>1335</ele>
        <time>2020-05-31T13:09:22+02:00</time>
      </trkpt>
      <trkpt lat="44.60926" lon="5.39399">
        <ele>1335</ele>
        <time>2020-05-31T13:09:52+02:00</time>
      </trkpt>
      <trkpt lat="44.60916" lon="5.39394">
        <ele>1336</ele>
        <time>2020-05-31T13:10:09+02:00</time>
      </trkpt>
      <trkpt lat="44.609" lon="5.39381">
        <ele>1334</ele>
        <time>2020-05-31T13:10:30+02:00</time>
      </trkpt>
      <trkpt lat="44.60888" lon="5.39376">
        <ele>1331</ele>
        <time>2020-05-31T13:11:09+02:00</time>
      </trkpt>
      <trkpt lat="44.60872" lon="5.39366">
        <ele>1333</ele>
        <time>2020-05-31T13:11:29+02:00</time>
      </trkpt>
      <trkpt lat="44.60856" lon="5.39356">
        <ele>1336</ele>
        <time>2020-05-31T13:11:50+02:00</time>
      </trkpt>
      <trkpt lat="44.60841" lon="5.3935">
        <ele>1335</ele>
        <time>2020-05-31T13:12:08+02:00</time>
      </trkpt>
      <trkpt lat="44.60821" lon="5.3934">
        <ele>1336</ele>
        <time>2020-05-31T13:12:31+02:00</time>
      </trkpt>
      <trkpt lat="44.60802" lon="5.39334">
        <ele>1337</ele>
        <time>2020-05-31T13:12:53+02:00</time>
      </trkpt>
      <trkpt lat="44.60786" lon="5.39324">
        <ele>1337</ele>
        <time>2020-05-31T13:13:12+02:00</time>
      </trkpt>
      <trkpt lat="44.60768" lon="5.39318">
        <ele>1336</ele>
        <time>2020-05-31T13:13:33+02:00</time>
      </trkpt>
      <trkpt lat="44.60751" lon="5.39312">
        <ele>1336</ele>
        <time>2020-05-31T13:13:53+02:00</time>
      </trkpt>
      <trkpt lat="44.60729" lon="5.39306">
        <ele>1336</ele>
        <time>2020-05-31T13:14:16+02:00</time>
      </trkpt>
      <trkpt lat="44.60709" lon="5.39299">
        <ele>1334</ele>
        <time>2020-05-31T13:14:36+02:00</time>
      </trkpt>
      <trkpt lat="44.60691" lon="5.39293">
        <ele>1333</ele>
        <time>2020-05-31T13:14:55+02:00</time>
      </trkpt>
      <trkpt lat="44.60672" lon="5.39282">
        <ele>1335</ele>
        <time>2020-05-31T13:15:16+02:00</time>
      </trkpt>
      <trkpt lat="44.60653" lon="5.39272">
        <ele>1337</ele>
        <time>2020-05-31T13:15:37+02:00</time>
      </trkpt>
      <trkpt lat="44.60639" lon="5.3927">
        <ele>1337</ele>
        <time>2020-05-31T13:15:54+02:00</time>
      </trkpt>
      <trkpt lat="44.60626" lon="5.39272">
        <ele>1338</ele>
        <time>2020-05-31T13:16:11+02:00</time>
      </trkpt>
      <trkpt lat="44.60609" lon="5.39273">
        <ele>1338</ele>
        <time>2020-05-31T13:16:31+02:00</time>
      </trkpt>
      <trkpt lat="44.606" lon="5.39272">
        <ele>1339</ele>
        <time>2020-05-31T13:16:41+02:00</time>
      </trkpt>
      <trkpt lat="44.60579" lon="5.39269">
        <ele>1340</ele>
        <time>2020-05-31T13:17:03+02:00</time>
      </trkpt>
      <trkpt lat="44.60566" lon="5.39266">
        <ele>1339</ele>
        <time>2020-05-31T13:17:17+02:00</time>
      </trkpt>
      <trkpt lat="44.6055" lon="5.39259">
        <ele>1341</ele>
        <time>2020-05-31T13:17:35+02:00</time>
      </trkpt>
      <trkpt lat="44.60528" lon="5.39254">
        <ele>1340</ele>
        <time>2020-05-31T13:18:01+02:00</time>
      </trkpt>
      <trkpt lat="44.60509" lon="5.39245">
        <ele>1340</ele>
        <time>2020-05-31T13:18:23+02:00</time>
      </trkpt>
      <trkpt lat="44.6049" lon="5.39235">
        <ele>1340</ele>
        <time>2020-05-31T13:18:44+02:00</time>
      </trkpt>
      <trkpt lat="44.60473" lon="5.39228">
        <ele>1341</ele>
        <time>2020-05-31T13:19:03+02:00</time>
      </trkpt>
      <trkpt lat="44.60458" lon="5.39222">
        <ele>1343</ele>
        <time>2020-05-31T13:19:19+02:00</time>
      </trkpt>
      <trkpt lat="44.60439" lon="5.39219">
        <ele>1340</ele>
        <time>2020-05-31T13:19:40+02:00</time>
      </trkpt>
      <trkpt lat="44.60429" lon="5.39214">
        <ele>1340</ele>
        <time>2020-05-31T13:19:56+02:00</time>
      </trkpt>
      <trkpt lat="44.60406" lon="5.39207">
        <ele>1340</ele>
        <time>2020-05-31T13:20:21+02:00</time>
      </trkpt>
      <trkpt lat="44.604" lon="5.39207">
        <ele>1340</ele>
        <time>2020-05-31T13:21:08+02:00</time>
      </trkpt>
      <trkpt lat="44.6038" lon="5.39207">
        <ele>1339</ele>
        <time>2020-05-31T13:21:28+02:00</time>
      </trkpt>
      <trkpt lat="44.60364" lon="5.39205">
        <ele>1341</ele>
        <time>2020-05-31T13:21:46+02:00</time>
      </trkpt>
      <trkpt lat="44.60355" lon="5.39205">
        <ele>1341</ele>
        <time>2020-05-31T13:21:55+02:00</time>
      </trkpt>
      <trkpt lat="44.60333" lon="5.39201">
        <ele>1345</ele>
        <time>2020-05-31T13:22:18+02:00</time>
      </trkpt>
      <trkpt lat="44.60311" lon="5.39196">
        <ele>1346</ele>
        <time>2020-05-31T13:22:40+02:00</time>
      </trkpt>
      <trkpt lat="44.60298" lon="5.39192">
        <ele>1347</ele>
        <time>2020-05-31T13:23:00+02:00</time>
      </trkpt>
      <trkpt lat="44.60282" lon="5.39182">
        <ele>1350</ele>
        <time>2020-05-31T13:23:18+02:00</time>
      </trkpt>
      <trkpt lat="44.60262" lon="5.39175">
        <ele>1352</ele>
        <time>2020-05-31T13:23:38+02:00</time>
      </trkpt>
      <trkpt lat="44.60241" lon="5.39168">
        <ele>1355</ele>
        <time>2020-05-31T13:26:15+02:00</time>
      </trkpt>
      <trkpt lat="44.60235" lon="5.39167">
        <ele>1354</ele>
        <time>2020-05-31T13:26:22+02:00</time>
      </trkpt>
      <trkpt lat="44.60216" lon="5.39163">
        <ele>1353</ele>
        <time>2020-05-31T13:26:42+02:00</time>
      </trkpt>
      <trkpt lat="44.60195" lon="5.3916">
        <ele>1352</ele>
        <time>2020-05-31T13:27:03+02:00</time>
      </trkpt>
      <trkpt lat="44.60171" lon="5.39156">
        <ele>1354</ele>
        <time>2020-05-31T13:27:25+02:00</time>
      </trkpt>
      <trkpt lat="44.60152" lon="5.39158">
        <ele>1353</ele>
        <time>2020-05-31T13:27:45+02:00</time>
      </trkpt>
      <trkpt lat="44.60131" lon="5.39154">
        <ele>1353</ele>
        <time>2020-05-31T13:28:08+02:00</time>
      </trkpt>
      <trkpt lat="44.60111" lon="5.39149">
        <ele>1354</ele>
        <time>2020-05-31T13:28:30+02:00</time>
      </trkpt>
      <trkpt lat="44.60093" lon="5.39144">
        <ele>1356</ele>
        <time>2020-05-31T13:28:51+02:00</time>
      </trkpt>
      <trkpt lat="44.60077" lon="5.39135">
        <ele>1357</ele>
        <time>2020-05-31T13:29:10+02:00</time>
      </trkpt>
      <trkpt lat="44.60066" lon="5.39127">
        <ele>1356</ele>
        <time>2020-05-31T13:29:29+02:00</time>
      </trkpt>
      <trkpt lat="44.60052" lon="5.39114">
        <ele>1357</ele>
        <time>2020-05-31T13:29:48+02:00</time>
      </trkpt>
      <trkpt lat="44.6004" lon="5.39103">
        <ele>1355</ele>
        <time>2020-05-31T13:30:05+02:00</time>
      </trkpt>
      <trkpt lat="44.60029" lon="5.39091">
        <ele>1351</ele>
        <time>2020-05-31T13:30:18+02:00</time>
      </trkpt>
      <trkpt lat="44.60021" lon="5.39085">
        <ele>1350</ele>
        <time>2020-05-31T13:31:45+02:00</time>
      </trkpt>
      <trkpt lat="44.60008" lon="5.39065">
        <ele>1345</ele>
        <time>2020-05-31T13:32:06+02:00</time>
      </trkpt>
      <trkpt lat="44.59998" lon="5.39054">
        <ele>1343</ele>
        <time>2020-05-31T13:32:19+02:00</time>
      </trkpt>
      <trkpt lat="44.59984" lon="5.39045">
        <ele>1342</ele>
        <time>2020-05-31T13:32:36+02:00</time>
      </trkpt>
      <trkpt lat="44.59966" lon="5.39035">
        <ele>1340</ele>
        <time>2020-05-31T13:33:10+02:00</time>
      </trkpt>
      <trkpt lat="44.59953" lon="5.39024">
        <ele>1339</ele>
        <time>2020-05-31T13:33:28+02:00</time>
      </trkpt>
      <trkpt lat="44.5994" lon="5.39013">
        <ele>1339</ele>
        <time>2020-05-31T13:33:46+02:00</time>
      </trkpt>
      <trkpt lat="44.59922" lon="5.38998">
        <ele>1341</ele>
        <time>2020-05-31T13:34:26+02:00</time>
      </trkpt>
      <trkpt lat="44.59911" lon="5.38991">
        <ele>1343</ele>
        <time>2020-05-31T13:34:45+02:00</time>
      </trkpt>
      <trkpt lat="44.599" lon="5.38986">
        <ele>1346</ele>
        <time>2020-05-31T13:35:03+02:00</time>
      </trkpt>
      <trkpt lat="44.5988" lon="5.38977">
        <ele>1351</ele>
        <time>2020-05-31T13:35:38+02:00</time>
      </trkpt>
      <trkpt lat="44.59863" lon="5.38973">
        <ele>1354</ele>
        <time>2020-05-31T13:36:12+02:00</time>
      </trkpt>
      <trkpt lat="44.59843" lon="5.3897">
        <ele>1359</ele>
        <time>2020-05-31T13:36:48+02:00</time>
      </trkpt>
      <trkpt lat="44.59832" lon="5.38963">
        <ele>1362</ele>
        <time>2020-05-31T13:37:05+02:00</time>
      </trkpt>
      <trkpt lat="44.59818" lon="5.38954">
        <ele>1364</ele>
        <time>2020-05-31T13:37:24+02:00</time>
      </trkpt>
      <trkpt lat="44.59805" lon="5.38944">
        <ele>1369</ele>
        <time>2020-05-31T13:37:42+02:00</time>
      </trkpt>
      <trkpt lat="44.59787" lon="5.38935">
        <ele>1366</ele>
        <time>2020-05-31T13:38:03+02:00</time>
      </trkpt>
      <trkpt lat="44.5977" lon="5.38928">
        <ele>1365</ele>
        <time>2020-05-31T13:38:22+02:00</time>
      </trkpt>
      <trkpt lat="44.59751" lon="5.38917">
        <ele>1368</ele>
        <time>2020-05-31T13:38:44+02:00</time>
      </trkpt>
      <trkpt lat="44.59729" lon="5.38915">
        <ele>1366</ele>
        <time>2020-05-31T13:39:07+02:00</time>
      </trkpt>
      <trkpt lat="44.59712" lon="5.38911">
        <ele>1365</ele>
        <time>2020-05-31T13:39:27+02:00</time>
      </trkpt>
      <trkpt lat="44.59694" lon="5.3891">
        <ele>1363</ele>
        <time>2020-05-31T13:39:49+02:00</time>
      </trkpt>
      <trkpt lat="44.59677" lon="5.38905">
        <ele>1360</ele>
        <time>2020-05-31T13:40:10+02:00</time>
      </trkpt>
      <trkpt lat="44.59662" lon="5.38901">
        <ele>1357</ele>
        <time>2020-05-31T13:40:28+02:00</time>
      </trkpt>
      <trkpt lat="44.59642" lon="5.38893">
        <ele>1355</ele>
        <time>2020-05-31T13:40:49+02:00</time>
      </trkpt>
      <trkpt lat="44.59626" lon="5.38887">
        <ele>1352</ele>
        <time>2020-05-31T13:41:08+02:00</time>
      </trkpt>
      <trkpt lat="44.59614" lon="5.3888">
        <ele>1350</ele>
        <time>2020-05-31T13:41:43+02:00</time>
      </trkpt>
      <trkpt lat="44.59601" lon="5.38881">
        <ele>1349</ele>
        <time>2020-05-31T13:43:04+02:00</time>
      </trkpt>
      <trkpt lat="44.59579" lon="5.38874">
        <ele>1349</ele>
        <time>2020-05-31T13:43:35+02:00</time>
      </trkpt>
      <trkpt lat="44.59558" lon="5.3888">
        <ele>1349</ele>
        <time>2020-05-31T14:34:51+02:00</time>
      </trkpt>
      <trkpt lat="44.59545" lon="5.38866">
        <ele>1350</ele>
        <time>2020-05-31T14:35:40+02:00</time>
      </trkpt>
      <trkpt lat="44.59532" lon="5.38863">
        <ele>1350</ele>
        <time>2020-05-31T14:35:56+02:00</time>
      </trkpt>
      <trkpt lat="44.5952" lon="5.3886">
        <ele>1350</ele>
        <time>2020-05-31T14:36:11+02:00</time>
      </trkpt>
      <trkpt lat="44.59504" lon="5.38859">
        <ele>1350</ele>
        <time>2020-05-31T14:36:29+02:00</time>
      </trkpt>
      <trkpt lat="44.5949" lon="5.38854">
        <ele>1351</ele>
        <time>2020-05-31T14:36:45+02:00</time>
      </trkpt>
      <trkpt lat="44.59474" lon="5.38846">
        <ele>1353</ele>
        <time>2020-05-31T14:37:08+02:00</time>
      </trkpt>
      <trkpt lat="44.59453" lon="5.38838">
        <ele>1359</ele>
        <time>2020-05-31T14:37:39+02:00</time>
      </trkpt>
      <trkpt lat="44.59431" lon="5.38845">
        <ele>1364</ele>
        <time>2020-05-31T14:38:12+02:00</time>
      </trkpt>
      <trkpt lat="44.59415" lon="5.38859">
        <ele>1365</ele>
        <time>2020-05-31T14:38:48+02:00</time>
      </trkpt>
      <trkpt lat="44.59399" lon="5.38859">
        <ele>1365</ele>
        <time>2020-05-31T14:39:09+02:00</time>
      </trkpt>
      <trkpt lat="44.59387" lon="5.38856">
        <ele>1366</ele>
        <time>2020-05-31T14:39:27+02:00</time>
      </trkpt>
      <trkpt lat="44.59377" lon="5.38847">
        <ele>1369</ele>
        <time>2020-05-31T14:39:44+02:00</time>
      </trkpt>
      <trkpt lat="44.59355" lon="5.38849">
        <ele>1371</ele>
        <time>2020-05-31T14:40:18+02:00</time>
      </trkpt>
      <trkpt lat="44.59341" lon="5.3885">
        <ele>1374</ele>
        <time>2020-05-31T14:40:36+02:00</time>
      </trkpt>
      <trkpt lat="44.59327" lon="5.38848">
        <ele>1376</ele>
        <time>2020-05-31T14:40:55+02:00</time>
      </trkpt>
      <trkpt lat="44.59315" lon="5.38846">
        <ele>1378</ele>
        <time>2020-05-31T14:41:13+02:00</time>
      </trkpt>
      <trkpt lat="44.59294" lon="5.38835">
        <ele>1384</ele>
        <time>2020-05-31T14:41:47+02:00</time>
      </trkpt>
      <trkpt lat="44.59278" lon="5.38821">
        <ele>1390</ele>
        <time>2020-05-31T14:42:21+02:00</time>
      </trkpt>
      <trkpt lat="44.59261" lon="5.38811">
        <ele>1395</ele>
        <time>2020-05-31T14:42:58+02:00</time>
      </trkpt>
      <trkpt lat="44.59247" lon="5.38789">
        <ele>1402</ele>
        <time>2020-05-31T14:43:38+02:00</time>
      </trkpt>
      <trkpt lat="44.59232" lon="5.38773">
        <ele>1408</ele>
        <time>2020-05-31T14:44:16+02:00</time>
      </trkpt>
      <trkpt lat="44.59219" lon="5.38748">
        <ele>1414</ele>
        <time>2020-05-31T14:44:57+02:00</time>
      </trkpt>
      <trkpt lat="44.59207" lon="5.3873">
        <ele>1421</ele>
        <time>2020-05-31T14:45:32+02:00</time>
      </trkpt>
      <trkpt lat="44.59195" lon="5.38743">
        <ele>1424</ele>
        <time>2020-05-31T14:46:07+02:00</time>
      </trkpt>
      <trkpt lat="44.59175" lon="5.38755">
        <ele>1428</ele>
        <time>2020-05-31T14:46:46+02:00</time>
      </trkpt>
      <trkpt lat="44.59162" lon="5.38759">
        <ele>1430</ele>
        <time>2020-05-31T14:47:06+02:00</time>
      </trkpt>
      <trkpt lat="44.5914" lon="5.38763">
        <ele>1433</ele>
        <time>2020-05-31T14:48:12+02:00</time>
      </trkpt>
      <trkpt lat="44.59131" lon="5.38763">
        <ele>1434</ele>
        <time>2020-05-31T14:48:32+02:00</time>
      </trkpt>
      <trkpt lat="44.59118" lon="5.38759">
        <ele>1436</ele>
        <time>2020-05-31T14:48:51+02:00</time>
      </trkpt>
      <trkpt lat="44.59101" lon="5.38755">
        <ele>1439</ele>
        <time>2020-05-31T14:49:12+02:00</time>
      </trkpt>
      <trkpt lat="44.59086" lon="5.3875">
        <ele>1442</ele>
        <time>2020-05-31T14:49:33+02:00</time>
      </trkpt>
      <trkpt lat="44.59069" lon="5.38745">
        <ele>1444</ele>
        <time>2020-05-31T14:49:53+02:00</time>
      </trkpt>
      <trkpt lat="44.59055" lon="5.3874">
        <ele>1446</ele>
        <time>2020-05-31T14:50:09+02:00</time>
      </trkpt>
      <trkpt lat="44.59037" lon="5.38728">
        <ele>1448</ele>
        <time>2020-05-31T14:50:31+02:00</time>
      </trkpt>
      <trkpt lat="44.59024" lon="5.3872">
        <ele>1449</ele>
        <time>2020-05-31T14:50:46+02:00</time>
      </trkpt>
      <trkpt lat="44.59009" lon="5.38716">
        <ele>1448</ele>
        <time>2020-05-31T14:51:07+02:00</time>
      </trkpt>
      <trkpt lat="44.58989" lon="5.38711">
        <ele>1449</ele>
        <time>2020-05-31T14:51:44+02:00</time>
      </trkpt>
      <trkpt lat="44.58977" lon="5.3871">
        <ele>1450</ele>
        <time>2020-05-31T14:52:01+02:00</time>
      </trkpt>
      <trkpt lat="44.58963" lon="5.38708">
        <ele>1453</ele>
        <time>2020-05-31T14:52:21+02:00</time>
      </trkpt>
      <trkpt lat="44.5895" lon="5.38707">
        <ele>1456</ele>
        <time>2020-05-31T14:52:39+02:00</time>
      </trkpt>
      <trkpt lat="44.58937" lon="5.38711">
        <ele>1458</ele>
        <time>2020-05-31T14:52:57+02:00</time>
      </trkpt>
      <trkpt lat="44.58925" lon="5.38708">
        <ele>1462</ele>
        <time>2020-05-31T14:53:15+02:00</time>
      </trkpt>
      <trkpt lat="44.58919" lon="5.38679">
        <ele>1468</ele>
        <time>2020-05-31T15:00:23+02:00</time>
      </trkpt>
      <trkpt lat="44.58921" lon="5.38655">
        <ele>1466</ele>
        <time>2020-05-31T15:01:46+02:00</time>
      </trkpt>
      <trkpt lat="44.58919" lon="5.38624">
        <ele>1463</ele>
        <time>2020-05-31T15:02:19+02:00</time>
      </trkpt>
      <trkpt lat="44.58918" lon="5.38598">
        <ele>1460</ele>
        <time>2020-05-31T15:02:42+02:00</time>
      </trkpt>
      <trkpt lat="44.58917" lon="5.38574">
        <ele>1458</ele>
        <time>2020-05-31T15:03:02+02:00</time>
      </trkpt>
      <trkpt lat="44.58918" lon="5.38552">
        <ele>1457</ele>
        <time>2020-05-31T15:03:21+02:00</time>
      </trkpt>
      <trkpt lat="44.58925" lon="5.38529">
        <ele>1455</ele>
        <time>2020-05-31T15:03:40+02:00</time>
      </trkpt>
      <trkpt lat="44.58935" lon="5.38502">
        <ele>1454</ele>
        <time>2020-05-31T15:04:14+02:00</time>
      </trkpt>
      <trkpt lat="44.58942" lon="5.38479">
        <ele>1455</ele>
        <time>2020-05-31T15:04:45+02:00</time>
      </trkpt>
      <trkpt lat="44.58945" lon="5.3846">
        <ele>1456</ele>
        <time>2020-05-31T15:05:03+02:00</time>
      </trkpt>
      <trkpt lat="44.58945" lon="5.3843">
        <ele>1457</ele>
        <time>2020-05-31T15:05:28+02:00</time>
      </trkpt>
      <trkpt lat="44.58943" lon="5.3841">
        <ele>1456</ele>
        <time>2020-05-31T15:05:48+02:00</time>
      </trkpt>
      <trkpt lat="44.58939" lon="5.38385">
        <ele>1454</ele>
        <time>2020-05-31T15:06:11+02:00</time>
      </trkpt>
      <trkpt lat="44.58937" lon="5.38366">
        <ele>1453</ele>
        <time>2020-05-31T15:06:27+02:00</time>
      </trkpt>
      <trkpt lat="44.5894" lon="5.38337">
        <ele>1451</ele>
        <time>2020-05-31T15:06:52+02:00</time>
      </trkpt>
      <trkpt lat="44.58947" lon="5.3831">
        <ele>1449</ele>
        <time>2020-05-31T15:07:16+02:00</time>
      </trkpt>
      <trkpt lat="44.5895" lon="5.38283">
        <ele>1447</ele>
        <time>2020-05-31T15:07:40+02:00</time>
      </trkpt>
      <trkpt lat="44.58961" lon="5.38259">
        <ele>1444</ele>
        <time>2020-05-31T15:08:18+02:00</time>
      </trkpt>
      <trkpt lat="44.5897" lon="5.38241">
        <ele>1441</ele>
        <time>2020-05-31T15:09:06+02:00</time>
      </trkpt>
      <trkpt lat="44.58981" lon="5.38224">
        <ele>1439</ele>
        <time>2020-05-31T15:09:26+02:00</time>
      </trkpt>
      <trkpt lat="44.58987" lon="5.38204">
        <ele>1436</ele>
        <time>2020-05-31T15:09:58+02:00</time>
      </trkpt>
      <trkpt lat="44.58991" lon="5.38187">
        <ele>1433</ele>
        <time>2020-05-31T15:10:16+02:00</time>
      </trkpt>
      <trkpt lat="44.58994" lon="5.3817">
        <ele>1429</ele>
        <time>2020-05-31T15:10:33+02:00</time>
      </trkpt>
      <trkpt lat="44.59002" lon="5.3815">
        <ele>1426</ele>
        <time>2020-05-31T15:11:51+02:00</time>
      </trkpt>
      <trkpt lat="44.59013" lon="5.38127">
        <ele>1422</ele>
        <time>2020-05-31T15:12:47+02:00</time>
      </trkpt>
      <trkpt lat="44.5902" lon="5.38109">
        <ele>1419</ele>
        <time>2020-05-31T15:13:25+02:00</time>
      </trkpt>
      <trkpt lat="44.59025" lon="5.38094">
        <ele>1416</ele>
        <time>2020-05-31T15:13:46+02:00</time>
      </trkpt>
      <trkpt lat="44.59029" lon="5.38077">
        <ele>1413</ele>
        <time>2020-05-31T15:14:03+02:00</time>
      </trkpt>
      <trkpt lat="44.59031" lon="5.38055">
        <ele>1410</ele>
        <time>2020-05-31T15:14:23+02:00</time>
      </trkpt>
      <trkpt lat="44.59031" lon="5.38031">
        <ele>1409</ele>
        <time>2020-05-31T15:14:44+02:00</time>
      </trkpt>
      <trkpt lat="44.59031" lon="5.38024">
        <ele>1408</ele>
        <time>2020-05-31T15:15:01+02:00</time>
      </trkpt>
      <trkpt lat="44.59027" lon="5.37999">
        <ele>1406</ele>
        <time>2020-05-31T15:15:23+02:00</time>
      </trkpt>
      <trkpt lat="44.59021" lon="5.37985">
        <ele>1405</ele>
        <time>2020-05-31T15:15:38+02:00</time>
      </trkpt>
      <trkpt lat="44.59015" lon="5.37964">
        <ele>1403</ele>
        <time>2020-05-31T15:15:58+02:00</time>
      </trkpt>
      <trkpt lat="44.59007" lon="5.37945">
        <ele>1401</ele>
        <time>2020-05-31T15:16:15+02:00</time>
      </trkpt>
      <trkpt lat="44.59001" lon="5.37919">
        <ele>1397</ele>
        <time>2020-05-31T15:16:36+02:00</time>
      </trkpt>
      <trkpt lat="44.59" lon="5.37903">
        <ele>1396</ele>
        <time>2020-05-31T15:16:52+02:00</time>
      </trkpt>
      <trkpt lat="44.58994" lon="5.37887">
        <ele>1395</ele>
        <time>2020-05-31T15:17:08+02:00</time>
      </trkpt>
      <trkpt lat="44.5899" lon="5.3786">
        <ele>1392</ele>
        <time>2020-05-31T15:17:36+02:00</time>
      </trkpt>
      <trkpt lat="44.58981" lon="5.37835">
        <ele>1388</ele>
        <time>2020-05-31T15:17:55+02:00</time>
      </trkpt>
      <trkpt lat="44.58976" lon="5.37815">
        <ele>1385</ele>
        <time>2020-05-31T15:18:13+02:00</time>
      </trkpt>
      <trkpt lat="44.5897" lon="5.37785">
        <ele>1380</ele>
        <time>2020-05-31T15:18:43+02:00</time>
      </trkpt>
      <trkpt lat="44.58967" lon="5.37765">
        <ele>1377</ele>
        <time>2020-05-31T15:19:01+02:00</time>
      </trkpt>
      <trkpt lat="44.58961" lon="5.37736">
        <ele>1373</ele>
        <time>2020-05-31T15:19:31+02:00</time>
      </trkpt>
      <trkpt lat="44.58961" lon="5.37722">
        <ele>1372</ele>
        <time>2020-05-31T15:19:45+02:00</time>
      </trkpt>
      <trkpt lat="44.58964" lon="5.377">
        <ele>1369</ele>
        <time>2020-05-31T15:20:03+02:00</time>
      </trkpt>
      <trkpt lat="44.58968" lon="5.37686">
        <ele>1367</ele>
        <time>2020-05-31T15:20:21+02:00</time>
      </trkpt>
      <trkpt lat="44.58972" lon="5.37666">
        <ele>1364</ele>
        <time>2020-05-31T15:20:39+02:00</time>
      </trkpt>
      <trkpt lat="44.58979" lon="5.37642">
        <ele>1362</ele>
        <time>2020-05-31T15:21:00+02:00</time>
      </trkpt>
      <trkpt lat="44.58988" lon="5.37619">
        <ele>1361</ele>
        <time>2020-05-31T15:21:21+02:00</time>
      </trkpt>
      <trkpt lat="44.58997" lon="5.37602">
        <ele>1360</ele>
        <time>2020-05-31T15:21:36+02:00</time>
      </trkpt>
      <trkpt lat="44.59005" lon="5.3759">
        <ele>1359</ele>
        <time>2020-05-31T15:21:53+02:00</time>
      </trkpt>
      <trkpt lat="44.59018" lon="5.37572">
        <ele>1358</ele>
        <time>2020-05-31T15:22:14+02:00</time>
      </trkpt>
      <trkpt lat="44.59028" lon="5.37562">
        <ele>1357</ele>
        <time>2020-05-31T15:22:29+02:00</time>
      </trkpt>
      <trkpt lat="44.5904" lon="5.37549">
        <ele>1355</ele>
        <time>2020-05-31T15:22:48+02:00</time>
      </trkpt>
      <trkpt lat="44.59051" lon="5.37536">
        <ele>1352</ele>
        <time>2020-05-31T15:23:08+02:00</time>
      </trkpt>
      <trkpt lat="44.59066" lon="5.3752">
        <ele>1349</ele>
        <time>2020-05-31T15:23:29+02:00</time>
      </trkpt>
      <trkpt lat="44.5908" lon="5.37498">
        <ele>1347</ele>
        <time>2020-05-31T15:23:50+02:00</time>
      </trkpt>
      <trkpt lat="44.59095" lon="5.37466">
        <ele>1345</ele>
        <time>2020-05-31T15:24:18+02:00</time>
      </trkpt>
      <trkpt lat="44.59102" lon="5.37452">
        <ele>1343</ele>
        <time>2020-05-31T15:24:32+02:00</time>
      </trkpt>
      <trkpt lat="44.5912" lon="5.37435">
        <ele>1340</ele>
        <time>2020-05-31T15:24:56+02:00</time>
      </trkpt>
      <trkpt lat="44.59134" lon="5.37413">
        <ele>1337</ele>
        <time>2020-05-31T15:25:43+02:00</time>
      </trkpt>
      <trkpt lat="44.59149" lon="5.37392">
        <ele>1335</ele>
        <time>2020-05-31T15:26:14+02:00</time>
      </trkpt>
      <trkpt lat="44.59154" lon="5.37385">
        <ele>1334</ele>
        <time>2020-05-31T15:26:21+02:00</time>
      </trkpt>
      <trkpt lat="44.59164" lon="5.37365">
        <ele>1332</ele>
        <time>2020-05-31T15:26:40+02:00</time>
      </trkpt>
      <trkpt lat="44.59177" lon="5.37349">
        <ele>1332</ele>
        <time>2020-05-31T15:26:59+02:00</time>
      </trkpt>
      <trkpt lat="44.59185" lon="5.37336">
        <ele>1332</ele>
        <time>2020-05-31T15:27:13+02:00</time>
      </trkpt>
      <trkpt lat="44.59195" lon="5.37316">
        <ele>1331</ele>
        <time>2020-05-31T15:27:35+02:00</time>
      </trkpt>
      <trkpt lat="44.59203" lon="5.37298">
        <ele>1330</ele>
        <time>2020-05-31T15:27:53+02:00</time>
      </trkpt>
      <trkpt lat="44.59208" lon="5.37268">
        <ele>1328</ele>
        <time>2020-05-31T15:29:10+02:00</time>
      </trkpt>
      <trkpt lat="44.59211" lon="5.37251">
        <ele>1327</ele>
        <time>2020-05-31T15:29:25+02:00</time>
      </trkpt>
      <trkpt lat="44.59206" lon="5.37223">
        <ele>1323</ele>
        <time>2020-05-31T15:29:46+02:00</time>
      </trkpt>
      <trkpt lat="44.59206" lon="5.37214">
        <ele>1323</ele>
        <time>2020-05-31T15:29:57+02:00</time>
      </trkpt>
      <trkpt lat="44.59205" lon="5.37186">
        <ele>1321</ele>
        <time>2020-05-31T15:30:19+02:00</time>
      </trkpt>
      <trkpt lat="44.59206" lon="5.37164">
        <ele>1320</ele>
        <time>2020-05-31T15:30:37+02:00</time>
      </trkpt>
      <trkpt lat="44.59214" lon="5.37141">
        <ele>1320</ele>
        <time>2020-05-31T15:30:57+02:00</time>
      </trkpt>
      <trkpt lat="44.59225" lon="5.37135">
        <ele>1320</ele>
        <time>2020-05-31T15:31:09+02:00</time>
      </trkpt>
      <trkpt lat="44.5924" lon="5.37124">
        <ele>1321</ele>
        <time>2020-05-31T15:31:28+02:00</time>
      </trkpt>
      <trkpt lat="44.59253" lon="5.37123">
        <ele>1321</ele>
        <time>2020-05-31T15:31:44+02:00</time>
      </trkpt>
      <trkpt lat="44.59273" lon="5.37123">
        <ele>1321</ele>
        <time>2020-05-31T15:32:05+02:00</time>
      </trkpt>
      <trkpt lat="44.59291" lon="5.37114">
        <ele>1322</ele>
        <time>2020-05-31T15:32:36+02:00</time>
      </trkpt>
      <trkpt lat="44.59309" lon="5.37108">
        <ele>1322</ele>
        <time>2020-05-31T15:32:56+02:00</time>
      </trkpt>
      <trkpt lat="44.59324" lon="5.37088">
        <ele>1322</ele>
        <time>2020-05-31T15:33:17+02:00</time>
      </trkpt>
      <trkpt lat="44.59344" lon="5.3707">
        <ele>1323</ele>
        <time>2020-05-31T15:33:42+02:00</time>
      </trkpt>
      <trkpt lat="44.59356" lon="5.37068">
        <ele>1324</ele>
        <time>2020-05-31T15:33:57+02:00</time>
      </trkpt>
      <trkpt lat="44.59368" lon="5.37058">
        <ele>1327</ele>
        <time>2020-05-31T15:34:13+02:00</time>
      </trkpt>
      <trkpt lat="44.59371" lon="5.37035">
        <ele>1329</ele>
        <time>2020-05-31T15:34:32+02:00</time>
      </trkpt>
      <trkpt lat="44.59374" lon="5.37005">
        <ele>1331</ele>
        <time>2020-05-31T15:35:22+02:00</time>
      </trkpt>
      <trkpt lat="44.59378" lon="5.36979">
        <ele>1333</ele>
        <time>2020-05-31T15:35:43+02:00</time>
      </trkpt>
      <trkpt lat="44.59383" lon="5.36952">
        <ele>1334</ele>
        <time>2020-05-31T15:36:04+02:00</time>
      </trkpt>
      <trkpt lat="44.59386" lon="5.36934">
        <ele>1335</ele>
        <time>2020-05-31T15:36:20+02:00</time>
      </trkpt>
      <trkpt lat="44.59394" lon="5.36909">
        <ele>1335</ele>
        <time>2020-05-31T15:36:41+02:00</time>
      </trkpt>
      <trkpt lat="44.59413" lon="5.36904">
        <ele>1335</ele>
        <time>2020-05-31T15:37:03+02:00</time>
      </trkpt>
      <trkpt lat="44.59429" lon="5.36904">
        <ele>1335</ele>
        <time>2020-05-31T15:40:32+02:00</time>
      </trkpt>
      <trkpt lat="44.59442" lon="5.36905">
        <ele>1334</ele>
        <time>2020-05-31T15:40:51+02:00</time>
      </trkpt>
      <trkpt lat="44.59454" lon="5.36901">
        <ele>1333</ele>
        <time>2020-05-31T15:41:06+02:00</time>
      </trkpt>
      <trkpt lat="44.59469" lon="5.36884">
        <ele>1332</ele>
        <time>2020-05-31T15:41:27+02:00</time>
      </trkpt>
      <trkpt lat="44.59478" lon="5.36873">
        <ele>1331</ele>
        <time>2020-05-31T15:41:42+02:00</time>
      </trkpt>
      <trkpt lat="44.59493" lon="5.36858">
        <ele>1330</ele>
        <time>2020-05-31T15:42:00+02:00</time>
      </trkpt>
      <trkpt lat="44.59513" lon="5.36838">
        <ele>1328</ele>
        <time>2020-05-31T15:42:26+02:00</time>
      </trkpt>
      <trkpt lat="44.59532" lon="5.36819">
        <ele>1325</ele>
        <time>2020-05-31T15:42:50+02:00</time>
      </trkpt>
      <trkpt lat="44.59551" lon="5.36799">
        <ele>1322</ele>
        <time>2020-05-31T15:43:14+02:00</time>
      </trkpt>
      <trkpt lat="44.59567" lon="5.36784">
        <ele>1321</ele>
        <time>2020-05-31T15:43:32+02:00</time>
      </trkpt>
      <trkpt lat="44.59587" lon="5.36762">
        <ele>1320</ele>
        <time>2020-05-31T15:43:55+02:00</time>
      </trkpt>
      <trkpt lat="44.59601" lon="5.36749">
        <ele>1319</ele>
        <time>2020-05-31T15:44:12+02:00</time>
      </trkpt>
      <trkpt lat="44.59623" lon="5.36729">
        <ele>1318</ele>
        <time>2020-05-31T15:44:36+02:00</time>
      </trkpt>
      <trkpt lat="44.59642" lon="5.36713">
        <ele>1317</ele>
        <time>2020-05-31T15:44:58+02:00</time>
      </trkpt>
      <trkpt lat="44.59652" lon="5.36685">
        <ele>1318</ele>
        <time>2020-05-31T15:45:21+02:00</time>
      </trkpt>
      <trkpt lat="44.59651" lon="5.36645">
        <ele>1316</ele>
        <time>2020-05-31T15:45:49+02:00</time>
      </trkpt>
      <trkpt lat="44.59657" lon="5.36621">
        <ele>1315</ele>
        <time>2020-05-31T15:46:07+02:00</time>
      </trkpt>
      <trkpt lat="44.59676" lon="5.36594">
        <ele>1315</ele>
        <time>2020-05-31T15:46:32+02:00</time>
      </trkpt>
      <trkpt lat="44.59689" lon="5.36576">
        <ele>1315</ele>
        <time>2020-05-31T15:46:49+02:00</time>
      </trkpt>
      <trkpt lat="44.59702" lon="5.36551">
        <ele>1313</ele>
        <time>2020-05-31T15:47:09+02:00</time>
      </trkpt>
      <trkpt lat="44.5971" lon="5.3652">
        <ele>1312</ele>
        <time>2020-05-31T15:47:31+02:00</time>
      </trkpt>
      <trkpt lat="44.5972" lon="5.36496">
        <ele>1310</ele>
        <time>2020-05-31T15:47:49+02:00</time>
      </trkpt>
      <trkpt lat="44.59735" lon="5.3648">
        <ele>1309</ele>
        <time>2020-05-31T15:48:06+02:00</time>
      </trkpt>
      <trkpt lat="44.59756" lon="5.36464">
        <ele>1309</ele>
        <time>2020-05-31T15:48:27+02:00</time>
      </trkpt>
      <trkpt lat="44.5978" lon="5.36453">
        <ele>1309</ele>
        <time>2020-05-31T15:48:49+02:00</time>
      </trkpt>
      <trkpt lat="44.59805" lon="5.36444">
        <ele>1309</ele>
        <time>2020-05-31T15:49:11+02:00</time>
      </trkpt>
      <trkpt lat="44.59826" lon="5.3645">
        <ele>1308</ele>
        <time>2020-05-31T15:49:30+02:00</time>
      </trkpt>
      <trkpt lat="44.59841" lon="5.36458">
        <ele>1306</ele>
        <time>2020-05-31T15:49:46+02:00</time>
      </trkpt>
      <trkpt lat="44.5986" lon="5.36465">
        <ele>1305</ele>
        <time>2020-05-31T15:50:05+02:00</time>
      </trkpt>
      <trkpt lat="44.5988" lon="5.36461">
        <ele>1302</ele>
        <time>2020-05-31T15:50:25+02:00</time>
      </trkpt>
      <trkpt lat="44.59897" lon="5.36437">
        <ele>1300</ele>
        <time>2020-05-31T15:50:46+02:00</time>
      </trkpt>
      <trkpt lat="44.59909" lon="5.36419">
        <ele>1299</ele>
        <time>2020-05-31T15:51:03+02:00</time>
      </trkpt>
      <trkpt lat="44.59929" lon="5.36404">
        <ele>1299</ele>
        <time>2020-05-31T15:51:23+02:00</time>
      </trkpt>
      <trkpt lat="44.59946" lon="5.36387">
        <ele>1299</ele>
        <time>2020-05-31T15:51:41+02:00</time>
      </trkpt>
      <trkpt lat="44.59961" lon="5.36366">
        <ele>1299</ele>
        <time>2020-05-31T15:52:00+02:00</time>
      </trkpt>
      <trkpt lat="44.59971" lon="5.36348">
        <ele>1298</ele>
        <time>2020-05-31T15:52:14+02:00</time>
      </trkpt>
      <trkpt lat="44.59984" lon="5.36323">
        <ele>1298</ele>
        <time>2020-05-31T15:52:35+02:00</time>
      </trkpt>
      <trkpt lat="44.59992" lon="5.36303">
        <ele>1298</ele>
        <time>2020-05-31T15:52:50+02:00</time>
      </trkpt>
      <trkpt lat="44.59995" lon="5.36295">
        <ele>1298</ele>
        <time>2020-05-31T15:52:55+02:00</time>
      </trkpt>
      <trkpt lat="44.60005" lon="5.3627">
        <ele>1298</ele>
        <time>2020-05-31T15:53:13+02:00</time>
      </trkpt>
      <trkpt lat="44.60016" lon="5.36245">
        <ele>1299</ele>
        <time>2020-05-31T15:53:32+02:00</time>
      </trkpt>
      <trkpt lat="44.60023" lon="5.36229">
        <ele>1299</ele>
        <time>2020-05-31T15:53:56+02:00</time>
      </trkpt>
      <trkpt lat="44.60033" lon="5.36212">
        <ele>1298</ele>
        <time>2020-05-31T15:54:14+02:00</time>
      </trkpt>
      <trkpt lat="44.60047" lon="5.36191">
        <ele>1296</ele>
        <time>2020-05-31T15:54:32+02:00</time>
      </trkpt>
      <trkpt lat="44.60052" lon="5.36182">
        <ele>1296</ele>
        <time>2020-05-31T15:54:40+02:00</time>
      </trkpt>
      <trkpt lat="44.60083" lon="5.36158">
        <ele>1291</ele>
        <time>2020-05-31T15:55:16+02:00</time>
      </trkpt>
      <trkpt lat="44.60113" lon="5.36138">
        <ele>1288</ele>
        <time>2020-05-31T15:55:55+02:00</time>
      </trkpt>
      <trkpt lat="44.60129" lon="5.36135">
        <ele>1287</ele>
        <time>2020-05-31T15:56:11+02:00</time>
      </trkpt>
      <trkpt lat="44.60149" lon="5.36134">
        <ele>1286</ele>
        <time>2020-05-31T15:56:29+02:00</time>
      </trkpt>
      <trkpt lat="44.60163" lon="5.36157">
        <ele>1285</ele>
        <time>2020-05-31T15:56:49+02:00</time>
      </trkpt>
      <trkpt lat="44.60181" lon="5.36161">
        <ele>1285</ele>
        <time>2020-05-31T15:57:08+02:00</time>
      </trkpt>
      <trkpt lat="44.60201" lon="5.36169">
        <ele>1284</ele>
        <time>2020-05-31T15:57:28+02:00</time>
      </trkpt>
      <trkpt lat="44.60214" lon="5.36182">
        <ele>1283</ele>
        <time>2020-05-31T15:57:43+02:00</time>
      </trkpt>
      <trkpt lat="44.60224" lon="5.36203">
        <ele>1282</ele>
        <time>2020-05-31T15:57:59+02:00</time>
      </trkpt>
      <trkpt lat="44.6023" lon="5.36216">
        <ele>1283</ele>
        <time>2020-05-31T15:58:09+02:00</time>
      </trkpt>
      <trkpt lat="44.60237" lon="5.36231">
        <ele>1283</ele>
        <time>2020-05-31T15:58:21+02:00</time>
      </trkpt>
      <trkpt lat="44.60242" lon="5.36262">
        <ele>1284</ele>
        <time>2020-05-31T15:58:39+02:00</time>
      </trkpt>
      <trkpt lat="44.60254" lon="5.36293">
        <ele>1285</ele>
        <time>2020-05-31T15:59:13+02:00</time>
      </trkpt>
      <trkpt lat="44.60268" lon="5.36331">
        <ele>1285</ele>
        <time>2020-05-31T15:59:40+02:00</time>
      </trkpt>
      <trkpt lat="44.60283" lon="5.36366">
        <ele>1285</ele>
        <time>2020-05-31T16:00:00+02:00</time>
      </trkpt>
      <trkpt lat="44.60305" lon="5.364">
        <ele>1283</ele>
        <time>2020-05-31T16:00:29+02:00</time>
      </trkpt>
      <trkpt lat="44.60318" lon="5.36421">
        <ele>1284</ele>
        <time>2020-05-31T16:00:48+02:00</time>
      </trkpt>
      <trkpt lat="44.60333" lon="5.36446">
        <ele>1285</ele>
        <time>2020-05-31T16:01:10+02:00</time>
      </trkpt>
      <trkpt lat="44.60346" lon="5.36476">
        <ele>1289</ele>
        <time>2020-05-31T16:01:37+02:00</time>
      </trkpt>
      <trkpt lat="44.60366" lon="5.3649">
        <ele>1289</ele>
        <time>2020-05-31T16:02:48+02:00</time>
      </trkpt>
      <trkpt lat="44.60384" lon="5.36498">
        <ele>1286</ele>
        <time>2020-05-31T16:03:07+02:00</time>
      </trkpt>
      <trkpt lat="44.60404" lon="5.36513">
        <ele>1284</ele>
        <time>2020-05-31T16:03:31+02:00</time>
      </trkpt>
      <trkpt lat="44.60431" lon="5.3653">
        <ele>1281</ele>
        <time>2020-05-31T16:03:57+02:00</time>
      </trkpt>
      <trkpt lat="44.60457" lon="5.36548">
        <ele>1278</ele>
        <time>2020-05-31T16:04:23+02:00</time>
      </trkpt>
      <trkpt lat="44.60477" lon="5.3656">
        <ele>1274</ele>
        <time>2020-05-31T16:04:48+02:00</time>
      </trkpt>
      <trkpt lat="44.60502" lon="5.36565">
        <ele>1271</ele>
        <time>2020-05-31T16:05:11+02:00</time>
      </trkpt>
      <trkpt lat="44.60517" lon="5.36563">
        <ele>1270</ele>
        <time>2020-05-31T16:05:26+02:00</time>
      </trkpt>
      <trkpt lat="44.60532" lon="5.36559">
        <ele>1270</ele>
        <time>2020-05-31T16:05:43+02:00</time>
      </trkpt>
      <trkpt lat="44.60551" lon="5.36555">
        <ele>1267</ele>
        <time>2020-05-31T16:06:01+02:00</time>
      </trkpt>
      <trkpt lat="44.60563" lon="5.36555">
        <ele>1266</ele>
        <time>2020-05-31T16:06:35+02:00</time>
      </trkpt>
      <trkpt lat="44.60577" lon="5.36551">
        <ele>1263</ele>
        <time>2020-05-31T16:06:53+02:00</time>
      </trkpt>
      <trkpt lat="44.60596" lon="5.36552">
        <ele>1261</ele>
        <time>2020-05-31T16:07:23+02:00</time>
      </trkpt>
      <trkpt lat="44.6061" lon="5.36549">
        <ele>1260</ele>
        <time>2020-05-31T16:07:46+02:00</time>
      </trkpt>
      <trkpt lat="44.6063" lon="5.36546">
        <ele>1260</ele>
        <time>2020-05-31T16:08:04+02:00</time>
      </trkpt>
      <trkpt lat="44.60648" lon="5.36543">
        <ele>1260</ele>
        <time>2020-05-31T16:08:21+02:00</time>
      </trkpt>
      <trkpt lat="44.60665" lon="5.36537">
        <ele>1260</ele>
        <time>2020-05-31T16:08:39+02:00</time>
      </trkpt>
      <trkpt lat="44.60679" lon="5.3653">
        <ele>1258</ele>
        <time>2020-05-31T16:08:54+02:00</time>
      </trkpt>
      <trkpt lat="44.60694" lon="5.36521">
        <ele>1256</ele>
        <time>2020-05-31T16:09:11+02:00</time>
      </trkpt>
      <trkpt lat="44.60714" lon="5.36512">
        <ele>1253</ele>
        <time>2020-05-31T16:09:32+02:00</time>
      </trkpt>
      <trkpt lat="44.6073" lon="5.36506">
        <ele>1250</ele>
        <time>2020-05-31T16:09:49+02:00</time>
      </trkpt>
      <trkpt lat="44.60747" lon="5.36507">
        <ele>1248</ele>
        <time>2020-05-31T16:10:06+02:00</time>
      </trkpt>
      <trkpt lat="44.60765" lon="5.3651">
        <ele>1244</ele>
        <time>2020-05-31T16:10:24+02:00</time>
      </trkpt>
      <trkpt lat="44.6078" lon="5.36526">
        <ele>1242</ele>
        <time>2020-05-31T16:10:42+02:00</time>
      </trkpt>
      <trkpt lat="44.60791" lon="5.36552">
        <ele>1238</ele>
        <time>2020-05-31T16:11:16+02:00</time>
      </trkpt>
      <trkpt lat="44.60793" lon="5.36584">
        <ele>1235</ele>
        <time>2020-05-31T16:11:34+02:00</time>
      </trkpt>
      <trkpt lat="44.60812" lon="5.36595">
        <ele>1230</ele>
        <time>2020-05-31T16:12:11+02:00</time>
      </trkpt>
      <trkpt lat="44.6083" lon="5.36576">
        <ele>1229</ele>
        <time>2020-05-31T16:14:26+02:00</time>
      </trkpt>
      <trkpt lat="44.60839" lon="5.3655">
        <ele>1228</ele>
        <time>2020-05-31T16:14:38+02:00</time>
      </trkpt>
      <trkpt lat="44.60844" lon="5.36522">
        <ele>1227</ele>
        <time>2020-05-31T16:14:49+02:00</time>
      </trkpt>
      <trkpt lat="44.60848" lon="5.36488">
        <ele>1223</ele>
      </trkpt>
      <trkpt lat="44.60876" lon="5.36518">
        <ele>1218</ele>
        <time>2020-05-31T16:15:51+02:00</time>
      </trkpt>
      <trkpt lat="44.60895" lon="5.36543">
        <ele>1214</ele>
        <time>2020-05-31T16:16:06+02:00</time>
      </trkpt>
      <trkpt lat="44.60918" lon="5.36549">
        <ele>1209</ele>
        <time>2020-05-31T16:16:36+02:00</time>
      </trkpt>
      <trkpt lat="44.60939" lon="5.36549">
        <ele>1203</ele>
        <time>2020-05-31T16:17:07+02:00</time>
      </trkpt>
      <trkpt lat="44.60952" lon="5.36542">
        <ele>1200</ele>
        <time>2020-05-31T16:17:39+02:00</time>
      </trkpt>
      <trkpt lat="44.60971" lon="5.36535">
        <ele>1196</ele>
        <time>2020-05-31T16:17:55+02:00</time>
      </trkpt>
      <trkpt lat="44.60992" lon="5.36531">
        <ele>1192</ele>
        <time>2020-05-31T16:20:43+02:00</time>
      </trkpt>
      <trkpt lat="44.61011" lon="5.36511">
        <ele>1187</ele>
        <time>2020-05-31T16:21:03+02:00</time>
      </trkpt>
      <trkpt lat="44.61026" lon="5.36501">
        <ele>1183</ele>
        <time>2020-05-31T16:24:49+02:00</time>
      </trkpt>
      <trkpt lat="44.61041" lon="5.3649">
        <ele>1179</ele>
        <time>2020-05-31T16:25:12+02:00</time>
      </trkpt>
      <trkpt lat="44.61058" lon="5.36477">
        <ele>1175</ele>
        <time>2020-05-31T16:25:41+02:00</time>
      </trkpt>
      <trkpt lat="44.61073" lon="5.3647">
        <ele>1171</ele>
        <time>2020-05-31T16:26:13+02:00</time>
      </trkpt>
      <trkpt lat="44.61087" lon="5.36458">
        <ele>1165</ele>
        <time>2020-05-31T16:26:53+02:00</time>
      </trkpt>
      <trkpt lat="44.61112" lon="5.36449">
        <ele>1158</ele>
        <time>2020-05-31T16:27:36+02:00</time>
      </trkpt>
      <trkpt lat="44.61136" lon="5.36436">
        <ele>1152</ele>
        <time>2020-05-31T16:28:19+02:00</time>
      </trkpt>
      <trkpt lat="44.61152" lon="5.36425">
        <ele>1147</ele>
        <time>2020-05-31T16:28:37+02:00</time>
      </trkpt>
      <trkpt lat="44.61171" lon="5.3642">
        <ele>1142</ele>
        <time>2020-05-31T16:28:59+02:00</time>
      </trkpt>
      <trkpt lat="44.61182" lon="5.36416">
        <ele>1139</ele>
        <time>2020-05-31T16:29:23+02:00</time>
      </trkpt>
      <trkpt lat="44.61195" lon="5.3641">
        <ele>1135</ele>
        <time>2020-05-31T16:29:41+02:00</time>
      </trkpt>
      <trkpt lat="44.61212" lon="5.36404">
        <ele>1130</ele>
        <time>2020-05-31T16:30:00+02:00</time>
      </trkpt>
      <trkpt lat="44.61223" lon="5.36399">
        <ele>1127</ele>
        <time>2020-05-31T16:30:20+02:00</time>
      </trkpt>
      <trkpt lat="44.61244" lon="5.3639">
        <ele>1124</ele>
        <time>2020-05-31T16:30:40+02:00</time>
      </trkpt>
      <trkpt lat="44.61258" lon="5.36383">
        <ele>1120</ele>
        <time>2020-05-31T16:30:59+02:00</time>
      </trkpt>
      <trkpt lat="44.61271" lon="5.36375">
        <ele>1117</ele>
        <time>2020-05-31T16:31:18+02:00</time>
      </trkpt>
      <trkpt lat="44.61283" lon="5.3636">
        <ele>1114</ele>
        <time>2020-05-31T16:32:06+02:00</time>
      </trkpt>
      <trkpt lat="44.613" lon="5.3635">
        <ele>1110</ele>
        <time>2020-05-31T16:32:27+02:00</time>
      </trkpt>
      <trkpt lat="44.61314" lon="5.36335">
        <ele>1107</ele>
        <time>2020-05-31T16:32:46+02:00</time>
      </trkpt>
      <trkpt lat="44.61328" lon="5.36321">
        <ele>1105</ele>
        <time>2020-05-31T16:33:06+02:00</time>
      </trkpt>
      <trkpt lat="44.61334" lon="5.36311">
        <ele>1104</ele>
        <time>2020-05-31T16:33:22+02:00</time>
      </trkpt>
      <trkpt lat="44.61347" lon="5.36301">
        <ele>1102</ele>
        <time>2020-05-31T16:33:42+02:00</time>
      </trkpt>
      <trkpt lat="44.61359" lon="5.3629">
        <ele>1100</ele>
        <time>2020-05-31T16:34:28+02:00</time>
      </trkpt>
      <trkpt lat="44.61372" lon="5.36279">
        <ele>1099</ele>
        <time>2020-05-31T16:34:48+02:00</time>
      </trkpt>
      <trkpt lat="44.61389" lon="5.36268">
        <ele>1099</ele>
        <time>2020-05-31T16:35:10+02:00</time>
      </trkpt>
      <trkpt lat="44.61402" lon="5.3626">
        <ele>1099</ele>
        <time>2020-05-31T16:36:25+02:00</time>
      </trkpt>
      <trkpt lat="44.61419" lon="5.36253">
        <ele>1101</ele>
        <time>2020-05-31T16:36:43+02:00</time>
      </trkpt>
      <trkpt lat="44.61441" lon="5.36251">
        <ele>1101</ele>
        <time>2020-05-31T16:37:12+02:00</time>
      </trkpt>
      <trkpt lat="44.61464" lon="5.36251">
        <ele>1101</ele>
        <time>2020-05-31T16:37:58+02:00</time>
      </trkpt>
      <trkpt lat="44.6149" lon="5.36263">
        <ele>1100</ele>
        <time>2020-05-31T16:38:31+02:00</time>
      </trkpt>
      <trkpt lat="44.61511" lon="5.36269">
        <ele>1099</ele>
        <time>2020-05-31T16:38:59+02:00</time>
      </trkpt>
      <trkpt lat="44.61533" lon="5.3627">
        <ele>1098</ele>
        <time>2020-05-31T16:39:17+02:00</time>
      </trkpt>
      <trkpt lat="44.61559" lon="5.36271">
        <ele>1096</ele>
        <time>2020-05-31T16:39:43+02:00</time>
      </trkpt>
      <trkpt lat="44.61583" lon="5.36267">
        <ele>1093</ele>
        <time>2020-05-31T16:39:58+02:00</time>
      </trkpt>
      <trkpt lat="44.61597" lon="5.36265">
        <ele>1090</ele>
        <time>2020-05-31T16:40:13+02:00</time>
      </trkpt>
      <trkpt lat="44.61611" lon="5.36257">
        <ele>1087</ele>
        <time>2020-05-31T16:40:28+02:00</time>
      </trkpt>
      <trkpt lat="44.61626" lon="5.36248">
        <ele>1083</ele>
        <time>2020-05-31T16:40:44+02:00</time>
      </trkpt>
      <trkpt lat="44.6164" lon="5.36228">
        <ele>1082</ele>
        <time>2020-05-31T16:41:10+02:00</time>
      </trkpt>
      <trkpt lat="44.6166" lon="5.36195">
        <ele>1079</ele>
        <time>2020-05-31T16:42:12+02:00</time>
      </trkpt>
      <trkpt lat="44.61675" lon="5.3618">
        <ele>1075</ele>
        <time>2020-05-31T16:42:33+02:00</time>
      </trkpt>
      <trkpt lat="44.61696" lon="5.36156">
        <ele>1067</ele>
        <time>2020-05-31T16:42:58+02:00</time>
      </trkpt>
      <trkpt lat="44.61711" lon="5.36141">
        <ele>1062</ele>
        <time>2020-05-31T16:43:18+02:00</time>
      </trkpt>
      <trkpt lat="44.61718" lon="5.36125">
        <ele>1061</ele>
        <time>2020-05-31T16:43:33+02:00</time>
      </trkpt>
      <trkpt lat="44.61728" lon="5.36109">
        <ele>1059</ele>
        <time>2020-05-31T16:43:49+02:00</time>
      </trkpt>
      <trkpt lat="44.61733" lon="5.36097">
        <ele>1057</ele>
        <time>2020-05-31T16:44:04+02:00</time>
      </trkpt>
      <trkpt lat="44.61746" lon="5.36071">
        <ele>1054</ele>
        <time>2020-05-31T16:44:29+02:00</time>
      </trkpt>
      <trkpt lat="44.61754" lon="5.36055">
        <ele>1052</ele>
        <time>2020-05-31T16:44:47+02:00</time>
      </trkpt>
      <trkpt lat="44.61766" lon="5.36046">
        <ele>1047</ele>
        <time>2020-05-31T16:45:01+02:00</time>
      </trkpt>
      <trkpt lat="44.6178" lon="5.36043">
        <ele>1043</ele>
        <time>2020-05-31T16:45:17+02:00</time>
      </trkpt>
      <trkpt lat="44.61796" lon="5.36036">
        <ele>1038</ele>
        <time>2020-05-31T16:45:50+02:00</time>
      </trkpt>
      <trkpt lat="44.61801" lon="5.36013">
        <ele>1033</ele>
        <time>2020-05-31T16:46:16+02:00</time>
      </trkpt>
      <trkpt lat="44.61802" lon="5.35985">
        <ele>1027</ele>
        <time>2020-05-31T16:46:37+02:00</time>
      </trkpt>
      <trkpt lat="44.61787" lon="5.35971">
        <ele>1027</ele>
        <time>2020-05-31T16:46:50+02:00</time>
      </trkpt>
      <trkpt lat="44.61771" lon="5.35961">
        <ele>1028</ele>
        <time>2020-05-31T16:47:10+02:00</time>
      </trkpt>
      <trkpt lat="44.61757" lon="5.35947">
        <ele>1026</ele>
        <time>2020-05-31T16:47:28+02:00</time>
      </trkpt>
      <trkpt lat="44.61748" lon="5.3592">
        <ele>1016</ele>
        <time>2020-05-31T16:48:00+02:00</time>
      </trkpt>
      <trkpt lat="44.61761" lon="5.35915">
        <ele>1013</ele>
        <time>2020-05-31T16:48:16+02:00</time>
      </trkpt>
      <trkpt lat="44.61777" lon="5.35898">
        <ele>1004</ele>
        <time>2020-05-31T16:48:28+02:00</time>
      </trkpt>
      <trkpt lat="44.61794" lon="5.35893">
        <ele>1000</ele>
        <time>2020-05-31T16:48:45+02:00</time>
      </trkpt>
      <trkpt lat="44.61816" lon="5.35886">
        <ele>996</ele>
        <time>2020-05-31T16:49:05+02:00</time>
      </trkpt>
      <trkpt lat="44.61835" lon="5.35883">
        <ele>994</ele>
        <time>2020-05-31T16:49:24+02:00</time>
      </trkpt>
      <trkpt lat="44.61849" lon="5.35876">
        <ele>991</ele>
        <time>2020-05-31T16:49:42+02:00</time>
      </trkpt>
      <trkpt lat="44.61867" lon="5.35871">
        <ele>988</ele>
        <time>2020-05-31T16:49:58+02:00</time>
      </trkpt>
      <trkpt lat="44.61881" lon="5.35874">
        <ele>987</ele>
        <time>2020-05-31T16:50:19+02:00</time>
      </trkpt>
      <trkpt lat="44.61899" lon="5.35871">
        <ele>983</ele>
        <time>2020-05-31T16:50:35+02:00</time>
      </trkpt>
      <trkpt lat="44.61919" lon="5.35873">
        <ele>980</ele>
        <time>2020-05-31T16:50:52+02:00</time>
      </trkpt>
      <trkpt lat="44.61933" lon="5.3587">
        <ele>974</ele>
        <time>2020-05-31T16:51:09+02:00</time>
      </trkpt>
      <trkpt lat="44.61943" lon="5.35859">
        <ele>970</ele>
        <time>2020-05-31T16:51:22+02:00</time>
      </trkpt>
      <trkpt lat="44.61953" lon="5.35853">
        <ele>966</ele>
        <time>2020-05-31T16:51:34+02:00</time>
      </trkpt>
      <trkpt lat="44.61967" lon="5.35835">
        <ele>961</ele>
        <time>2020-05-31T16:51:53+02:00</time>
      </trkpt>
      <trkpt lat="44.61982" lon="5.35814">
        <ele>957</ele>
        <time>2020-05-31T16:52:14+02:00</time>
      </trkpt>
      <trkpt lat="44.61998" lon="5.35804">
        <ele>953</ele>
        <time>2020-05-31T16:54:41+02:00</time>
      </trkpt>
      <trkpt lat="44.62015" lon="5.35783">
        <ele>949</ele>
        <time>2020-05-31T16:55:20+02:00</time>
      </trkpt>
      <trkpt lat="44.62029" lon="5.35766">
        <ele>948</ele>
        <time>2020-05-31T16:55:41+02:00</time>
      </trkpt>
      <trkpt lat="44.62045" lon="5.35749">
        <ele>944</ele>
        <time>2020-05-31T16:56:01+02:00</time>
      </trkpt>
      <trkpt lat="44.62061" lon="5.35742">
        <ele>941</ele>
        <time>2020-05-31T16:56:19+02:00</time>
      </trkpt>
      <trkpt lat="44.62084" lon="5.35733">
        <ele>938</ele>
        <time>2020-05-31T16:56:41+02:00</time>
      </trkpt>
      <trkpt lat="44.62097" lon="5.35725">
        <ele>936</ele>
        <time>2020-05-31T16:56:55+02:00</time>
      </trkpt>
      <trkpt lat="44.62109" lon="5.35716">
        <ele>934</ele>
      </trkpt>
      <trkpt lat="44.62119" lon="5.35729">
        <ele>931</ele>
        <time>2020-05-31T16:57:24+02:00</time>
      </trkpt>
      <trkpt lat="44.62123" lon="5.35754">
        <ele>925</ele>
        <time>2020-05-31T16:57:44+02:00</time>
      </trkpt>
      <trkpt lat="44.62139" lon="5.35754">
        <ele>922</ele>
        <time>2020-05-31T16:58:04+02:00</time>
      </trkpt>
      <trkpt lat="44.62154" lon="5.35745">
        <ele>920</ele>
        <time>2020-05-31T16:58:21+02:00</time>
      </trkpt>
      <trkpt lat="44.62163" lon="5.35739">
        <ele>919</ele>
        <time>2020-05-31T16:58:38+02:00</time>
      </trkpt>
      <trkpt lat="44.62184" lon="5.35726">
        <ele>916</ele>
        <time>2020-05-31T16:59:01+02:00</time>
      </trkpt>
      <trkpt lat="44.62205" lon="5.35714">
        <ele>913</ele>
        <time>2020-05-31T16:59:21+02:00</time>
      </trkpt>
      <trkpt lat="44.62217" lon="5.35701">
        <ele>912</ele>
        <time>2020-05-31T17:00:15+02:00</time>
      </trkpt>
      <trkpt lat="44.62227" lon="5.35721">
        <ele>908</ele>
        <time>2020-05-31T17:01:13+02:00</time>
      </trkpt>
      <trkpt lat="44.62244" lon="5.35695">
        <ele>906</ele>
        <time>2020-05-31T17:01:35+02:00</time>
      </trkpt>
      <trkpt lat="44.62251" lon="5.35669">
        <ele>907</ele>
        <time>2020-05-31T17:01:55+02:00</time>
      </trkpt>
      <trkpt lat="44.62257" lon="5.3565">
        <ele>906</ele>
        <time>2020-05-31T17:02:11+02:00</time>
      </trkpt>
      <trkpt lat="44.62261" lon="5.35624">
        <ele>905</ele>
        <time>2020-05-31T17:02:30+02:00</time>
      </trkpt>
      <trkpt lat="44.62259" lon="5.35597">
        <ele>904</ele>
        <time>2020-05-31T17:02:49+02:00</time>
      </trkpt>
      <trkpt lat="44.62253" lon="5.35571">
        <ele>903</ele>
        <time>2020-05-31T17:03:12+02:00</time>
      </trkpt>
      <trkpt lat="44.62257" lon="5.3555">
        <ele>901</ele>
        <time>2020-05-31T17:03:50+02:00</time>
      </trkpt>
      <trkpt lat="44.62256" lon="5.35529">
        <ele>899</ele>
        <time>2020-05-31T17:19:54+02:00</time>
      </trkpt>
      <trkpt lat="44.62261" lon="5.35507">
        <ele>898</ele>
        <time>2020-05-31T17:20:14+02:00</time>
      </trkpt>
      <trkpt lat="44.62265" lon="5.35492">
        <ele>898</ele>
        <time>2020-05-31T17:20:29+02:00</time>
      </trkpt>
      <trkpt lat="44.62268" lon="5.35461">
        <ele>896</ele>
        <time>2020-05-31T17:20:52+02:00</time>
      </trkpt>
      <trkpt lat="44.62269" lon="5.35444">
        <ele>895</ele>
        <time>2020-05-31T17:21:04+02:00</time>
      </trkpt>
      <trkpt lat="44.62276" lon="5.35415">
        <ele>892</ele>
        <time>2020-05-31T17:21:27+02:00</time>
      </trkpt>
      <trkpt lat="44.62281" lon="5.354">
        <ele>889</ele>
        <time>2020-05-31T17:21:42+02:00</time>
      </trkpt>
      <trkpt lat="44.62286" lon="5.35384">
        <ele>887</ele>
        <time>2020-05-31T17:21:56+02:00</time>
      </trkpt>
      <trkpt lat="44.62293" lon="5.35367">
        <ele>883</ele>
        <time>2020-05-31T17:22:13+02:00</time>
      </trkpt>
      <trkpt lat="44.62301" lon="5.35351">
        <ele>880</ele>
        <time>2020-05-31T17:22:28+02:00</time>
      </trkpt>
      <trkpt lat="44.6231" lon="5.35333">
        <ele>877</ele>
      </trkpt>
      <trkpt lat="44.62303" lon="5.35324">
        <ele>873</ele>
      </trkpt>
      <trkpt lat="44.62288" lon="5.35327">
        <ele>871</ele>
        <time>2020-05-31T17:23:07+02:00</time>
      </trkpt>
      <trkpt lat="44.62271" lon="5.3534">
        <ele>871</ele>
        <time>2020-05-31T17:23:21+02:00</time>
      </trkpt>
      <trkpt lat="44.62258" lon="5.35345">
        <ele>870</ele>
        <time>2020-05-31T17:23:44+02:00</time>
      </trkpt>
      <trkpt lat="44.62249" lon="5.35348">
        <ele>869</ele>
        <time>2020-05-31T17:23:54+02:00</time>
      </trkpt>
      <trkpt lat="44.6223" lon="5.3536">
        <ele>864</ele>
        <time>2020-05-31T17:24:14+02:00</time>
      </trkpt>
      <trkpt lat="44.6222" lon="5.35378">
        <ele>863</ele>
        <time>2020-05-31T17:24:31+02:00</time>
      </trkpt>
      <trkpt lat="44.6221" lon="5.35393">
        <ele>860</ele>
        <time>2020-05-31T17:24:46+02:00</time>
      </trkpt>
      <trkpt lat="44.62204" lon="5.35406">
        <ele>859</ele>
        <time>2020-05-31T17:24:58+02:00</time>
      </trkpt>
      <trkpt lat="44.62194" lon="5.3542">
        <ele>856</ele>
      </trkpt>
      <trkpt lat="44.62189" lon="5.35384">
        <ele>847</ele>
        <time>2020-05-31T17:25:58+02:00</time>
      </trkpt>
      <trkpt lat="44.62192" lon="5.35364">
        <ele>846</ele>
        <time>2020-05-31T17:26:12+02:00</time>
      </trkpt>
      <trkpt lat="44.62195" lon="5.3534">
        <ele>844</ele>
        <time>2020-05-31T17:26:29+02:00</time>
      </trkpt>
      <trkpt lat="44.62199" lon="5.35321">
        <ele>843</ele>
        <time>2020-05-31T17:26:44+02:00</time>
      </trkpt>
      <trkpt lat="44.62205" lon="5.353">
        <ele>840</ele>
        <time>2020-05-31T17:27:01+02:00</time>
      </trkpt>
      <trkpt lat="44.62213" lon="5.35281">
        <ele>837</ele>
        <time>2020-05-31T17:27:21+02:00</time>
      </trkpt>
      <trkpt lat="44.62219" lon="5.35271">
        <ele>836</ele>
        <time>2020-05-31T17:27:32+02:00</time>
      </trkpt>
      <trkpt lat="44.62228" lon="5.35254">
        <ele>830</ele>
        <time>2020-05-31T17:27:50+02:00</time>
      </trkpt>
      <trkpt lat="44.62242" lon="5.35233">
        <ele>824</ele>
        <time>2020-05-31T17:28:13+02:00</time>
      </trkpt>
      <trkpt lat="44.62257" lon="5.35222">
        <ele>822</ele>
        <time>2020-05-31T17:28:31+02:00</time>
      </trkpt>
      <trkpt lat="44.62265" lon="5.35205">
        <ele>814</ele>
        <time>2020-05-31T17:28:53+02:00</time>
      </trkpt>
      <trkpt lat="44.6228" lon="5.35187">
        <ele>808</ele>
        <time>2020-05-31T17:29:09+02:00</time>
      </trkpt>
      <trkpt lat="44.62294" lon="5.35175">
        <ele>806</ele>
        <time>2020-05-31T17:29:25+02:00</time>
      </trkpt>
      <trkpt lat="44.62308" lon="5.35156">
        <ele>802</ele>
        <time>2020-05-31T17:29:43+02:00</time>
      </trkpt>
      <trkpt lat="44.62323" lon="5.35136">
        <ele>802</ele>
        <time>2020-05-31T17:30:03+02:00</time>
      </trkpt>
      <trkpt lat="44.62337" lon="5.35115">
        <ele>802</ele>
        <time>2020-05-31T17:30:23+02:00</time>
      </trkpt>
      <trkpt lat="44.62346" lon="5.35089">
        <ele>800</ele>
        <time>2020-05-31T17:30:44+02:00</time>
      </trkpt>
      <trkpt lat="44.62354" lon="5.35064">
        <ele>798</ele>
        <time>2020-05-31T17:31:03+02:00</time>
      </trkpt>
      <trkpt lat="44.62357" lon="5.35042">
        <ele>794</ele>
        <time>2020-05-31T17:31:21+02:00</time>
      </trkpt>
      <trkpt lat="44.6236" lon="5.35021">
        <ele>789</ele>
        <time>2020-05-31T17:31:39+02:00</time>
      </trkpt>
      <trkpt lat="44.62362" lon="5.35005">
        <ele>784</ele>
        <time>2020-05-31T17:31:53+02:00</time>
      </trkpt>
      <trkpt lat="44.62368" lon="5.34981">
        <ele>780</ele>
        <time>2020-05-31T17:32:10+02:00</time>
      </trkpt>
      <trkpt lat="44.62381" lon="5.34964">
        <ele>780</ele>
        <time>2020-05-31T17:32:27+02:00</time>
      </trkpt>
      <trkpt lat="44.62401" lon="5.34947">
        <ele>780</ele>
        <time>2020-05-31T17:32:49+02:00</time>
      </trkpt>
      <trkpt lat="44.62413" lon="5.34933">
        <ele>777</ele>
        <time>2020-05-31T17:33:04+02:00</time>
      </trkpt>
      <trkpt lat="44.62423" lon="5.34924">
        <ele>774</ele>
        <time>2020-05-31T17:33:20+02:00</time>
      </trkpt>
      <trkpt lat="44.62435" lon="5.34919">
        <ele>772</ele>
        <time>2020-05-31T17:33:36+02:00</time>
      </trkpt>
      <trkpt lat="44.62451" lon="5.34909">
        <ele>767</ele>
        <time>2020-05-31T17:33:53+02:00</time>
      </trkpt>
      <trkpt lat="44.62459" lon="5.34883">
        <ele>759</ele>
        <time>2020-05-31T17:34:21+02:00</time>
      </trkpt>
      <trkpt lat="44.62462" lon="5.34853">
        <ele>752</ele>
        <time>2020-05-31T17:34:46+02:00</time>
      </trkpt>
      <trkpt lat="44.62466" lon="5.34826">
        <ele>749</ele>
        <time>2020-05-31T17:35:16+02:00</time>
      </trkpt>
      <trkpt lat="44.62472" lon="5.34799">
        <ele>747</ele>
        <time>2020-05-31T17:35:57+02:00</time>
      </trkpt>
      <trkpt lat="44.6248" lon="5.34774">
        <ele>743</ele>
        <time>2020-05-31T17:36:34+02:00</time>
      </trkpt>
      <trkpt lat="44.62483" lon="5.34757">
        <ele>742</ele>
        <time>2020-05-31T17:36:52+02:00</time>
      </trkpt>
      <trkpt lat="44.62488" lon="5.34731">
        <ele>741</ele>
        <time>2020-05-31T17:37:16+02:00</time>
      </trkpt>
      <trkpt lat="44.62494" lon="5.34706">
        <ele>741</ele>
        <time>2020-05-31T17:37:35+02:00</time>
      </trkpt>
      <trkpt lat="44.62502" lon="5.34684">
        <ele>740</ele>
        <time>2020-05-31T17:38:13+02:00</time>
      </trkpt>
      <trkpt lat="44.62504" lon="5.34664">
        <ele>739</ele>
        <time>2020-05-31T17:38:29+02:00</time>
      </trkpt>
      <trkpt lat="44.62508" lon="5.34631">
        <ele>737</ele>
        <time>2020-05-31T17:38:52+02:00</time>
      </trkpt>
      <trkpt lat="44.62508" lon="5.34615">
        <ele>737</ele>
        <time>2020-05-31T17:39:05+02:00</time>
      </trkpt>
      <trkpt lat="44.62499" lon="5.34586">
        <ele>736</ele>
        <time>2020-05-31T17:39:31+02:00</time>
      </trkpt>
      <trkpt lat="44.62489" lon="5.34569">
        <ele>734</ele>
        <time>2020-05-31T17:39:49+02:00</time>
      </trkpt>
      <trkpt lat="44.62478" lon="5.34548">
        <ele>731</ele>
        <time>2020-05-31T17:40:08+02:00</time>
      </trkpt>
      <trkpt lat="44.62474" lon="5.34538">
        <ele>730</ele>
        <time>2020-05-31T17:40:17+02:00</time>
      </trkpt>
      <trkpt lat="44.62484" lon="5.34542">
        <ele>729</ele>
        <time>2020-05-31T17:40:30+02:00</time>
      </trkpt>
      <trkpt lat="44.62494" lon="5.34555">
        <ele>730</ele>
        <time>2020-05-31T17:40:43+02:00</time>
      </trkpt>
      <trkpt lat="44.62507" lon="5.34571">
        <ele>731</ele>
        <time>2020-05-31T17:41:00+02:00</time>
      </trkpt>
      <trkpt lat="44.62525" lon="5.34591">
        <ele>728</ele>
        <time>2020-05-31T17:41:21+02:00</time>
      </trkpt>
      <trkpt lat="44.62539" lon="5.34598">
        <ele>724</ele>
        <time>2020-05-31T17:41:40+02:00</time>
      </trkpt>
      <trkpt lat="44.62535" lon="5.34623">
        <ele>727</ele>
        <time>2020-05-31T17:41:53+02:00</time>
      </trkpt>
      <trkpt lat="44.6254" lon="5.3466">
        <ele>723</ele>
        <time>2020-05-31T17:42:18+02:00</time>
      </trkpt>
      <trkpt lat="44.6254" lon="5.34691">
        <ele>722</ele>
        <time>2020-05-31T17:42:41+02:00</time>
      </trkpt>
      <trkpt lat="44.62532" lon="5.3473">
        <ele>723</ele>
        <time>2020-05-31T17:43:02+02:00</time>
      </trkpt>
      <trkpt lat="44.62527" lon="5.34756">
        <ele>724</ele>
        <time>2020-05-31T17:43:25+02:00</time>
      </trkpt>
      <trkpt lat="44.62525" lon="5.34779">
        <ele>724</ele>
        <time>2020-05-31T17:43:34+02:00</time>
      </trkpt>
      <trkpt lat="44.62532" lon="5.34797">
        <ele>721</ele>
        <time>2020-05-31T17:43:53+02:00</time>
      </trkpt>
      <trkpt lat="44.62546" lon="5.34819">
        <ele>718</ele>
        <time>2020-05-31T17:44:11+02:00</time>
      </trkpt>
      <trkpt lat="44.62562" lon="5.34838">
        <ele>717</ele>
        <time>2020-05-31T17:44:29+02:00</time>
      </trkpt>
      <trkpt lat="44.62578" lon="5.34857">
        <ele>717</ele>
        <time>2020-05-31T17:44:49+02:00</time>
      </trkpt>
      <trkpt lat="44.62593" lon="5.34874">
        <ele>716</ele>
        <time>2020-05-31T17:45:15+02:00</time>
      </trkpt>
      <trkpt lat="44.62609" lon="5.3489">
        <ele>716</ele>
        <time>2020-05-31T17:45:39+02:00</time>
      </trkpt>
      <trkpt lat="44.62625" lon="5.34913">
        <ele>717</ele>
        <time>2020-05-31T17:45:54+02:00</time>
      </trkpt>
    </trkseg>
  </trk>
</gpx>